Wetterdaten: Samstag, 02.11.2019
Datum Zeit Temp. Aussen Temp. o. S. Temp +5cm Feuchte Auss Luftdruck Regen Sonnenschein Regendauer Solar Windben Empfang
02.11.2019 00:00 10,5 C 9,4 C 9,4 C 100 % 995,4 hPa 0,0 l/m 0 min 0 min 0 W/m 19,3 km/h (3 Bft) 100,00 %
02.11.2019 00:02 10,5 C 9,4 C 9,4 C 100 % 995,3 hPa 0,0 l/m 0 min 0 min 0 W/m 12,9 km/h (3 Bft) 93,94 %
02.11.2019 00:04 10,5 C 10,0 C 9,4 C 100 % 995,3 hPa 0,0 l/m 0 min 0 min 0 W/m 12,9 km/h (3 Bft) 93,88 %
02.11.2019 00:07 10,6 C 10,0 C 9,4 C 100 % 995,3 hPa 0,0 l/m 0 min 0 min 0 W/m 16,1 km/h (3 Bft) 100,00 %
02.11.2019 00:08 10,6 C 10,0 C 9,4 C 100 % 995,3 hPa 0,0 l/m 0 min 1 min 0 W/m 12,9 km/h (3 Bft) 100,00 %
02.11.2019 00:10 10,6 C 10,0 C 9,4 C 100 % 995,3 hPa 0,0 l/m 0 min 2 min 0 W/m 6,4 km/h (2 Bft) 93,48 %
02.11.2019 00:12 10,6 C 10,0 C 9,4 C 100 % 995,3 hPa 0,0 l/m 0 min 2 min 0 W/m 6,4 km/h (2 Bft) 95,74 %
02.11.2019 00:14 10,6 C 10,0 C 9,4 C 100 % 995,3 hPa 0,0 l/m 0 min 2 min 0 W/m 19,3 km/h (3 Bft) 95,74 %
02.11.2019 00:16 10,6 C 10,0 C 9,4 C 100 % 995,3 hPa 0,0 l/m 0 min 2 min 0 W/m 19,3 km/h (3 Bft) 93,62 %
02.11.2019 00:18 10,6 C 10,0 C 9,4 C 100 % 995,3 hPa 0,0 l/m 0 min 2 min 0 W/m 16,1 km/h (3 Bft) 95,74 %
02.11.2019 00:20 10,6 C 10,0 C 9,4 C 100 % 995,2 hPa 0,0 l/m 0 min 2 min 0 W/m 12,9 km/h (3 Bft) 95,74 %
02.11.2019 00:22 10,7 C 10,0 C 9,4 C 100 % 995,2 hPa 0,0 l/m 0 min 2 min 0 W/m 19,3 km/h (3 Bft) 95,12 %
02.11.2019 00:24 10,7 C 10,0 C 9,4 C 100 % 995,2 hPa 0,0 l/m 0 min 2 min 0 W/m 19,3 km/h (3 Bft) 95,83 %
02.11.2019 00:26 10,7 C 10,0 C 9,4 C 100 % 995,1 hPa 0,0 l/m 0 min 0 min 0 W/m 16,1 km/h (3 Bft) 91,49 %
02.11.2019 00:28 10,7 C 10,0 C 9,4 C 100 % 995,1 hPa 0,0 l/m 0 min 0 min 0 W/m 12,9 km/h (3 Bft) 93,75 %
02.11.2019 00:30 10,7 C 10,0 C 9,4 C 100 % 995,1 hPa 0,0 l/m 0 min 0 min 0 W/m 12,9 km/h (3 Bft) 93,75 %
02.11.2019 00:32 10,8 C 10,0 C 9,4 C 100 % 995,1 hPa 0,2 l/m 0 min 2 min 0 W/m 19,3 km/h (3 Bft) 89,36 %
02.11.2019 00:34 10,8 C 10,0 C 9,4 C 100 % 995,1 hPa 0,0 l/m 0 min 2 min 0 W/m 12,9 km/h (3 Bft) 93,62 %
02.11.2019 00:36 10,8 C 10,0 C 9,4 C 100 % 995,0 hPa 0,2 l/m 0 min 2 min 0 W/m 12,9 km/h (3 Bft) 93,62 %
02.11.2019 00:38 10,8 C 10,0 C 9,4 C 100 % 995,1 hPa 0,2 l/m 0 min 2 min 0 W/m 16,1 km/h (3 Bft) 91,89 %
02.11.2019 00:40 10,8 C 10,0 C 9,4 C 100 % 995,1 hPa 0,0 l/m 0 min 2 min 0 W/m 16,1 km/h (3 Bft) 93,62 %
02.11.2019 00:42 10,8 C 10,0 C 9,4 C 100 % 995,1 hPa 0,2 l/m 0 min 2 min 0 W/m 12,9 km/h (3 Bft) 91,67 %
02.11.2019 00:44 10,8 C 10,0 C 9,4 C 100 % 995,1 hPa 0,0 l/m 0 min 2 min 0 W/m 12,9 km/h (3 Bft) 91,67 %
02.11.2019 00:46 10,9 C 10,0 C 9,4 C 100 % 995,1 hPa 0,0 l/m 0 min 2 min 0 W/m 12,9 km/h (3 Bft) 91,49 %
02.11.2019 00:48 10,9 C 10,0 C 9,4 C 100 % 995,1 hPa 0,0 l/m 0 min 2 min 0 W/m 12,9 km/h (3 Bft) 93,48 %
02.11.2019 00:50 10,9 C 10,0 C 9,4 C 100 % 995,0 hPa 0,2 l/m 0 min 2 min 0 W/m 6,4 km/h (2 Bft) 93,62 %
02.11.2019 00:52 10,9 C 10,0 C 9,4 C 100 % 995,0 hPa 0,0 l/m 0 min 2 min 0 W/m 3,2 km/h (1 Bft) 91,49 %
02.11.2019 00:54 10,9 C 10,0 C 9,4 C 100 % 995,0 hPa 0,2 l/m 0 min 2 min 0 W/m 16,1 km/h (3 Bft) 93,62 %
02.11.2019 00:56 10,9 C 10,0 C 9,4 C 100 % 995,0 hPa 0,0 l/m 0 min 2 min 0 W/m 16,1 km/h (3 Bft) 92,68 %
02.11.2019 00:58 10,9 C 10,0 C 9,4 C 100 % 994,9 hPa 0,0 l/m 0 min 0 min 0 W/m 12,9 km/h (3 Bft) 96,00 %
02.11.2019 01:00 10,9 C 10,0 C 9,4 C 100 % 994,8 hPa 0,0 l/m 0 min 2 min 0 W/m 16,1 km/h (3 Bft) 89,58 %
02.11.2019 01:02 10,9 C 10,0 C 9,4 C 100 % 994,8 hPa 0,0 l/m 0 min 0 min 0 W/m 12,9 km/h (3 Bft) 91,67 %
02.11.2019 01:04 10,9 C 10,0 C 9,4 C 100 % 994,8 hPa 0,0 l/m 0 min 2 min 0 W/m 12,9 km/h (3 Bft) 95,74 %
02.11.2019 01:06 10,9 C 10,0 C 9,4 C 100 % 994,8 hPa 0,0 l/m 0 min 2 min 0 W/m 6,4 km/h (2 Bft) 95,74 %
02.11.2019 01:08 10,9 C 10,0 C 9,4 C 100 % 994,7 hPa 0,0 l/m 0 min 0 min 0 W/m 6,4 km/h (2 Bft) 97,56 %
02.11.2019 01:10 10,9 C 10,0 C 9,4 C 100 % 994,7 hPa 0,0 l/m 0 min 0 min 0 W/m 6,4 km/h (2 Bft) 97,92 %
02.11.2019 01:12 10,9 C 10,0 C 9,4 C 100 % 994,6 hPa 0,0 l/m 0 min 0 min 0 W/m 6,4 km/h (2 Bft) 93,75 %
02.11.2019 01:14 10,9 C 10,0 C 9,4 C 100 % 994,5 hPa 0,0 l/m 0 min 2 min 0 W/m 6,4 km/h (2 Bft) 100,00 %
02.11.2019 01:16 10,9 C 10,0 C 9,4 C 100 % 994,5 hPa 0,2 l/m 0 min 0 min 0 W/m 12,9 km/h (3 Bft) 97,92 %
02.11.2019 01:18 10,9 C 10,0 C 9,4 C 100 % 994,5 hPa 0,0 l/m 0 min 0 min 0 W/m 6,4 km/h (2 Bft) 100,00 %
02.11.2019 01:20 10,9 C 10,0 C 9,4 C 100 % 994,4 hPa 0,0 l/m 0 min 0 min 0 W/m 6,4 km/h (2 Bft) 100,00 %
02.11.2019 01:22 10,9 C 10,0 C 9,4 C 100 % 994,4 hPa 0,0 l/m 0 min 0 min 0 W/m 6,4 km/h (2 Bft) 95,74 %
02.11.2019 01:24 11,0 C 10,0 C 10,0 C 100 % 994,3 hPa 0,0 l/m 0 min 0 min 0 W/m 12,9 km/h (3 Bft) 97,87 %
02.11.2019 01:26 11,0 C 10,0 C 10,0 C 100 % 994,2 hPa 0,0 l/m 0 min 0 min 0 W/m 3,2 km/h (1 Bft) 97,87 %
02.11.2019 01:28 11,0 C 10,0 C 10,0 C 100 % 994,3 hPa 0,0 l/m 0 min 0 min 0 W/m 3,2 km/h (1 Bft) 100,00 %
02.11.2019 01:30 11,1 C 10,0 C 10,0 C 100 % 994,2 hPa 0,0 l/m 0 min 0 min 0 W/m 12,9 km/h (3 Bft) 100,00 %
02.11.2019 01:32 11,1 C 10,6 C 10,0 C 100 % 994,2 hPa 0,0 l/m 0 min 0 min 0 W/m 12,9 km/h (3 Bft) 97,87 %
02.11.2019 01:34 11,1 C 10,6 C 10,0 C 100 % 994,1 hPa 0,0 l/m 0 min 0 min 0 W/m 6,4 km/h (2 Bft) 100,00 %
02.11.2019 01:36 11,1 C 10,6 C 10,0 C 100 % 994,1 hPa 0,0 l/m 0 min 2 min 0 W/m 12,9 km/h (3 Bft) 100,00 %
02.11.2019 01:38 11,1 C 10,6 C 10,0 C 100 % 994,0 hPa 0,0 l/m 0 min 0 min 0 W/m 12,9 km/h (3 Bft) 100,00 %
02.11.2019 01:40 11,1 C 10,6 C 10,0 C 100 % 994,0 hPa 0,0 l/m 0 min 0 min 0 W/m 16,1 km/h (3 Bft) 97,87 %
02.11.2019 01:42 11,1 C 10,6 C 10,0 C 100 % 993,9 hPa 0,0 l/m 0 min 0 min 0 W/m 16,1 km/h (3 Bft) 100,00 %
02.11.2019 01:44 11,2 C 10,6 C 10,0 C 100 % 993,9 hPa 0,0 l/m 0 min 0 min 0 W/m 12,9 km/h (3 Bft) 100,00 %
02.11.2019 01:46 11,2 C 10,6 C 10,0 C 100 % 993,9 hPa 0,0 l/m 0 min 0 min 0 W/m 19,3 km/h (3 Bft) 97,92 %
02.11.2019 01:48 11,2 C 10,6 C 10,0 C 100 % 993,8 hPa 0,0 l/m 0 min 0 min 0 W/m 12,9 km/h (3 Bft) 100,00 %
02.11.2019 01:50 11,2 C 10,6 C 10,0 C 100 % 993,8 hPa 0,0 l/m 0 min 0 min 0 W/m 12,9 km/h (3 Bft) 97,87 %
02.11.2019 01:52 11,2 C 10,6 C 10,0 C 100 % 993,8 hPa 0,0 l/m 0 min 0 min 0 W/m 22,5 km/h (4 Bft) 100,00 %
02.11.2019 01:54 11,2 C 10,6 C 10,0 C 100 % 993,7 hPa 0,0 l/m 0 min 0 min 0 W/m 16,1 km/h (3 Bft) 100,00 %
02.11.2019 01:56 11,2 C 10,6 C 10,0 C 100 % 993,7 hPa 0,0 l/m 0 min 0 min 0 W/m 12,9 km/h (3 Bft) 100,00 %
02.11.2019 01:58 11,3 C 10,6 C 10,0 C 100 % 993,6 hPa 0,0 l/m 0 min 0 min 0 W/m 6,4 km/h (2 Bft) 100,00 %
02.11.2019 02:00 11,3 C 10,6 C 10,0 C 100 % 993,6 hPa 0,0 l/m 0 min 0 min 0 W/m 16,1 km/h (3 Bft) 97,87 %
02.11.2019 02:02 11,3 C 10,6 C 10,0 C 100 % 993,6 hPa 0,0 l/m 0 min 0 min 0 W/m 16,1 km/h (3 Bft) 97,87 %
02.11.2019 02:04 11,3 C 10,6 C 10,0 C 100 % 993,5 hPa 0,0 l/m 0 min 0 min 0 W/m 12,9 km/h (3 Bft) 100,00 %
02.11.2019 02:06 11,3 C 10,6 C 10,0 C 100 % 993,5 hPa 0,0 l/m 0 min 0 min 0 W/m 12,9 km/h (3 Bft) 100,00 %
02.11.2019 02:08 11,3 C 10,6 C 10,0 C 100 % 993,6 hPa 0,0 l/m 0 min 0 min 0 W/m 19,3 km/h (3 Bft) 100,00 %
02.11.2019 02:10 11,3 C 10,6 C 10,0 C 100 % 993,6 hPa 0,0 l/m 0 min 0 min 0 W/m 16,1 km/h (3 Bft) 100,00 %
02.11.2019 02:12 11,4 C 10,6 C 10,0 C 100 % 993,5 hPa 0,0 l/m 0 min 0 min 0 W/m 12,9 km/h (3 Bft) 100,00 %
02.11.2019 02:14 11,4 C 10,6 C 10,0 C 100 % 993,5 hPa 0,0 l/m 0 min 0 min 0 W/m 12,9 km/h (3 Bft) 100,00 %
02.11.2019 02:16 11,4 C 10,6 C 10,0 C 100 % 993,5 hPa 0,0 l/m 0 min 0 min 0 W/m 12,9 km/h (3 Bft) 100,00 %
02.11.2019 02:18 11,4 C 10,6 C 10,0 C 100 % 993,4 hPa 0,0 l/m 0 min 0 min 0 W/m 12,9 km/h (3 Bft) 97,92 %
02.11.2019 02:20 11,4 C 10,6 C 10,0 C 100 % 993,4 hPa 0,0 l/m 0 min 0 min 0 W/m 16,1 km/h (3 Bft) 97,92 %
02.11.2019 02:22 11,4 C 10,6 C 10,0 C 100 % 993,4 hPa 0,0 l/m 0 min 0 min 0 W/m 16,1 km/h (3 Bft) 100,00 %
02.11.2019 02:24 11,4 C 10,6 C 10,0 C 100 % 993,4 hPa 0,0 l/m 0 min 0 min 0 W/m 16,1 km/h (3 Bft) 100,00 %
02.11.2019 02:26 11,4 C 10,6 C 10,0 C 100 % 993,3 hPa 0,0 l/m 0 min 0 min 0 W/m 16,1 km/h (3 Bft) 100,00 %
02.11.2019 02:28 11,4 C 10,6 C 10,0 C 100 % 993,3 hPa 0,0 l/m 0 min 0 min 0 W/m 16,1 km/h (3 Bft) 100,00 %
02.11.2019 02:30 11,4 C 10,6 C 10,0 C 100 % 993,2 hPa 0,0 l/m 0 min 0 min 0 W/m 12,9 km/h (3 Bft) 100,00 %
02.11.2019 02:32 11,4 C 10,6 C 10,0 C 100 % 993,1 hPa 0,0 l/m 0 min 0 min 0 W/m 12,9 km/h (3 Bft) 100,00 %
02.11.2019 02:34 11,4 C 10,6 C 10,0 C 100 % 993,1 hPa 0,0 l/m 0 min 0 min 0 W/m 16,1 km/h (3 Bft) 100,00 %
02.11.2019 02:36 11,5 C 10,6 C 10,0 C 100 % 993,1 hPa 0,0 l/m 0 min 0 min 0 W/m 16,1 km/h (3 Bft) 100,00 %
02.11.2019 02:38 11,5 C 10,6 C 10,0 C 100 % 993,0 hPa 0,0 l/m 0 min 0 min 0 W/m 12,9 km/h (3 Bft) 100,00 %
02.11.2019 02:40 11,5 C 10,6 C 10,0 C 100 % 993,0 hPa 0,0 l/m 0 min 2 min 0 W/m 12,9 km/h (3 Bft) 97,87 %
02.11.2019 02:42 11,6 C 10,6 C 10,0 C 100 % 993,0 hPa 0,0 l/m 0 min 0 min 0 W/m 16,1 km/h (3 Bft) 100,00 %
02.11.2019 02:44 11,6 C 10,6 C 10,0 C 100 % 992,9 hPa 0,0 l/m 0 min 0 min 0 W/m 3,2 km/h (1 Bft) 97,92 %
02.11.2019 02:46 11,6 C 10,6 C 10,0 C 100 % 992,9 hPa 0,0 l/m 0 min 0 min 0 W/m 16,1 km/h (3 Bft) 100,00 %
02.11.2019 02:48 11,6 C 10,6 C 10,0 C 100 % 992,8 hPa 0,0 l/m 0 min 0 min 0 W/m 12,9 km/h (3 Bft) 100,00 %
02.11.2019 02:50 11,6 C 10,6 C 10,0 C 100 % 992,8 hPa 0,0 l/m 0 min 0 min 0 W/m 6,4 km/h (2 Bft) 93,62 %
02.11.2019 02:52 11,6 C 10,6 C 10,6 C 100 % 992,8 hPa 0,0 l/m 0 min 0 min 0 W/m 12,9 km/h (3 Bft) 100,00 %
02.11.2019 02:54 11,6 C 10,6 C 10,6 C 100 % 992,8 hPa 0,0 l/m 0 min 0 min 0 W/m 12,9 km/h (3 Bft) 97,87 %
02.11.2019 02:56 11,6 C 10,6 C 10,0 C 100 % 992,7 hPa 0,0 l/m 0 min 0 min 0 W/m 16,1 km/h (3 Bft) 95,65 %
02.11.2019 02:58 11,6 C 10,6 C 10,6 C 100 % 992,6 hPa 0,0 l/m 0 min 0 min 0 W/m 12,9 km/h (3 Bft) 97,67 %
02.11.2019 03:00 11,6 C 10,6 C 10,6 C 100 % 992,6 hPa 0,0 l/m 0 min 0 min 0 W/m 16,1 km/h (3 Bft) 97,87 %
02.11.2019 03:02 11,6 C 10,6 C 10,6 C 100 % 992,6 hPa 0,0 l/m 0 min 0 min 0 W/m 6,4 km/h (2 Bft) 98,00 %
02.11.2019 03:04 11,6 C 10,6 C 10,6 C 100 % 992,5 hPa 0,0 l/m 0 min 0 min 0 W/m 12,9 km/h (3 Bft) 97,62 %
02.11.2019 03:06 11,6 C 10,6 C 10,6 C 100 % 992,5 hPa 0,0 l/m 0 min 0 min 0 W/m 12,9 km/h (3 Bft) 95,83 %
02.11.2019 03:08 11,7 C 10,6 C 10,6 C 100 % 992,5 hPa 0,0 l/m 0 min 0 min 0 W/m 16,1 km/h (3 Bft) 97,92 %
02.11.2019 03:10 11,7 C 10,6 C 10,6 C 100 % 992,4 hPa 0,0 l/m 0 min 0 min 0 W/m 12,9 km/h (3 Bft) 97,87 %
02.11.2019 03:12 11,7 C 10,6 C 10,6 C 100 % 992,4 hPa 0,0 l/m 0 min 0 min 0 W/m 12,9 km/h (3 Bft) 95,83 %
02.11.2019 03:14 11,7 C 10,6 C 10,6 C 100 % 992,4 hPa 0,0 l/m 0 min 0 min 0 W/m 6,4 km/h (2 Bft) 97,92 %
02.11.2019 03:16 11,7 C 11,1 C 10,6 C 100 % 992,4 hPa 0,0 l/m 0 min 0 min 0 W/m 12,9 km/h (3 Bft) 95,83 %
02.11.2019 03:18 11,7 C 11,1 C 10,6 C 100 % 992,4 hPa 0,0 l/m 0 min 0 min 0 W/m 12,9 km/h (3 Bft) 97,83 %
02.11.2019 03:20 11,7 C 11,1 C 10,6 C 100 % 992,4 hPa 0,0 l/m 0 min 0 min 0 W/m 9,7 km/h (2 Bft) 95,74 %
02.11.2019 03:22 11,7 C 11,1 C 10,6 C 100 % 992,3 hPa 0,0 l/m 0 min 0 min 0 W/m 12,9 km/h (3 Bft) 95,74 %
02.11.2019 03:24 11,7 C 11,1 C 10,6 C 100 % 992,3 hPa 0,0 l/m 0 min 0 min 0 W/m 12,9 km/h (3 Bft) 95,74 %
02.11.2019 03:26 11,7 C 11,1 C 10,6 C 100 % 992,3 hPa 0,0 l/m 0 min 0 min 0 W/m 6,4 km/h (2 Bft) 93,62 %
02.11.2019 03:28 11,7 C 11,1 C 10,6 C 100 % 992,2 hPa 0,0 l/m 0 min 0 min 0 W/m 16,1 km/h (3 Bft) 92,68 %
02.11.2019 03:30 11,7 C 11,1 C 10,6 C 100 % 992,2 hPa 0,0 l/m 0 min 0 min 0 W/m 9,7 km/h (2 Bft) 91,67 %
02.11.2019 03:32 11,7 C 11,1 C 10,6 C 100 % 992,2 hPa 0,0 l/m 0 min 0 min 0 W/m 6,4 km/h (2 Bft) 93,75 %
02.11.2019 03:34 11,7 C 11,1 C 10,6 C 100 % 992,1 hPa 0,0 l/m 0 min 0 min 0 W/m 3,2 km/h (1 Bft) 93,62 %
02.11.2019 03:36 11,7 C 11,1 C 10,6 C 100 % 992,1 hPa 0,0 l/m 0 min 0 min 0 W/m 6,4 km/h (2 Bft) 89,36 %
02.11.2019 03:38 11,8 C 11,1 C 10,6 C 100 % 992,1 hPa 0,0 l/m 0 min 0 min 0 W/m 12,9 km/h (3 Bft) 93,75 %
02.11.2019 03:40 11,8 C 11,1 C 10,6 C 100 % 992,1 hPa 0,0 l/m 0 min 0 min 0 W/m 12,9 km/h (3 Bft) 93,62 %
02.11.2019 03:42 11,8 C 11,1 C 10,6 C 100 % 992,0 hPa 0,0 l/m 0 min 0 min 0 W/m 3,2 km/h (1 Bft) 93,75 %
02.11.2019 03:44 11,8 C 11,1 C 10,6 C 100 % 992,0 hPa 0,0 l/m 0 min 0 min 0 W/m 3,2 km/h (1 Bft) 95,74 %
02.11.2019 03:46 11,8 C 11,1 C 10,6 C 100 % 992,0 hPa 0,0 l/m 0 min 0 min 0 W/m 3,2 km/h (1 Bft) 93,62 %
02.11.2019 03:48 11,8 C 11,1 C 10,6 C 100 % 992,0 hPa 0,0 l/m 0 min 0 min 0 W/m 6,4 km/h (2 Bft) 95,74 %
02.11.2019 03:50 11,8 C 11,1 C 10,6 C 100 % 992,0 hPa 0,0 l/m 0 min 0 min 0 W/m 3,2 km/h (1 Bft) 95,74 %
02.11.2019 03:52 11,8 C 11,1 C 10,6 C 100 % 992,0 hPa 0,0 l/m 0 min 0 min 0 W/m 6,4 km/h (2 Bft) 95,74 %
02.11.2019 03:54 11,9 C 11,1 C 10,6 C 100 % 991,9 hPa 0,0 l/m 0 min 0 min 0 W/m 3,2 km/h (1 Bft) 91,67 %
02.11.2019 03:56 11,8 C 11,1 C 10,6 C 100 % 991,9 hPa 0,0 l/m 0 min 0 min 0 W/m 3,2 km/h (1 Bft) 95,65 %
02.11.2019 03:58 11,9 C 11,1 C 10,6 C 100 % 991,8 hPa 0,0 l/m 0 min 0 min 0 W/m 3,2 km/h (1 Bft) 95,92 %
02.11.2019 04:00 11,9 C 11,1 C 10,6 C 100 % 991,8 hPa 0,0 l/m 0 min 0 min 0 W/m 6,4 km/h (2 Bft) 93,62 %
02.11.2019 04:05 11,9 C 11,1 C 10,6 C 100 % 991,8 hPa 0,0 l/m 0 min 0 min 0 W/m 3,2 km/h (1 Bft) 97,01 %
02.11.2019 04:06 11,9 C 11,1 C 10,6 C 100 % 991,8 hPa 0,0 l/m 0 min 0 min 0 W/m 3,2 km/h (1 Bft) 95,65 %
02.11.2019 04:08 11,9 C 11,1 C 10,6 C 100 % 991,8 hPa 0,0 l/m 0 min 0 min 0 W/m 12,9 km/h (3 Bft) 95,74 %
02.11.2019 04:10 12,0 C 11,1 C 10,6 C 100 % 991,7 hPa 0,0 l/m 0 min 0 min 0 W/m 12,9 km/h (3 Bft) 95,74 %
02.11.2019 04:12 12,0 C 11,1 C 10,6 C 100 % 991,7 hPa 0,0 l/m 0 min 0 min 0 W/m 12,9 km/h (3 Bft) 95,74 %
02.11.2019 04:14 12,1 C 11,7 C 10,6 C 100 % 991,7 hPa 0,0 l/m 0 min 0 min 0 W/m 6,4 km/h (2 Bft) 97,87 %
02.11.2019 04:16 12,1 C 11,7 C 11,1 C 100 % 991,7 hPa 0,0 l/m 0 min 2 min 0 W/m 16,1 km/h (3 Bft) 97,83 %
02.11.2019 04:18 12,1 C 11,7 C 11,1 C 100 % 991,7 hPa 0,0 l/m 0 min 2 min 0 W/m 12,9 km/h (3 Bft) 95,74 %
02.11.2019 04:20 12,1 C 11,7 C 11,1 C 100 % 991,7 hPa 0,0 l/m 0 min 2 min 0 W/m 12,9 km/h (3 Bft) 97,87 %
02.11.2019 04:22 12,2 C 11,7 C 11,1 C 100 % 991,7 hPa 0,0 l/m 0 min 2 min 0 W/m 12,9 km/h (3 Bft) 97,87 %
02.11.2019 04:24 12,2 C 11,7 C 11,1 C 100 % 991,6 hPa 0,0 l/m 0 min 0 min 0 W/m 16,1 km/h (3 Bft) 97,87 %
02.11.2019 04:26 12,2 C 11,7 C 11,1 C 100 % 991,6 hPa 0,0 l/m 0 min 0 min 0 W/m 12,9 km/h (3 Bft) 97,87 %
02.11.2019 04:28 12,2 C 11,7 C 11,1 C 100 % 991,6 hPa 0,0 l/m 0 min 0 min 0 W/m 16,1 km/h (3 Bft) 100,00 %
02.11.2019 04:30 12,3 C 11,7 C 11,1 C 100 % 991,5 hPa 0,2 l/m 0 min 2 min 0 W/m 12,9 km/h (3 Bft) 100,00 %
02.11.2019 04:32 12,3 C 11,7 C 11,1 C 100 % 991,5 hPa 0,0 l/m 0 min 2 min 0 W/m 16,1 km/h (3 Bft) 100,00 %
02.11.2019 04:34 12,3 C 11,7 C 11,1 C 100 % 991,4 hPa 0,0 l/m 0 min 2 min 0 W/m 16,1 km/h (3 Bft) 100,00 %
02.11.2019 04:36 12,4 C 11,7 C 11,1 C 100 % 991,4 hPa 0,0 l/m 0 min 2 min 0 W/m 6,4 km/h (2 Bft) 100,00 %
02.11.2019 04:38 12,4 C 11,7 C 11,1 C 100 % 991,3 hPa 0,0 l/m 0 min 2 min 0 W/m 12,9 km/h (3 Bft) 100,00 %
02.11.2019 04:40 12,4 C 11,7 C 11,1 C 100 % 991,3 hPa 0,0 l/m 0 min 2 min 0 W/m 6,4 km/h (2 Bft) 100,00 %
02.11.2019 04:42 12,4 C 11,7 C 11,1 C 100 % 991,3 hPa 0,0 l/m 0 min 2 min 0 W/m 9,7 km/h (2 Bft) 100,00 %
02.11.2019 04:44 12,5 C 11,7 C 11,1 C 100 % 991,3 hPa 0,2 l/m 0 min 2 min 0 W/m 6,4 km/h (2 Bft) 100,00 %
02.11.2019 04:46 12,5 C 11,7 C 11,1 C 100 % 991,3 hPa 0,0 l/m 0 min 2 min 0 W/m 12,9 km/h (3 Bft) 100,00 %
02.11.2019 04:48 12,6 C 11,7 C 11,1 C 100 % 991,3 hPa 0,0 l/m 0 min 2 min 0 W/m 12,9 km/h (3 Bft) 97,87 %
02.11.2019 04:50 12,6 C 11,7 C 11,7 C 100 % 991,4 hPa 0,2 l/m 0 min 2 min 0 W/m 19,3 km/h (3 Bft) 100,00 %
02.11.2019 04:52 12,6 C 11,7 C 11,7 C 100 % 991,4 hPa 0,0 l/m 0 min 2 min 0 W/m 3,2 km/h (1 Bft) 95,65 %
02.11.2019 04:54 12,6 C 12,2 C 11,7 C 100 % 991,4 hPa 0,0 l/m 0 min 2 min 0 W/m 3,2 km/h (1 Bft) 100,00 %
02.11.2019 04:56 12,6 C 12,2 C 11,7 C 100 % 991,4 hPa 0,0 l/m 0 min 2 min 0 W/m 0,0 km/h (0 Bft) 100,00 %
02.11.2019 04:58 12,7 C 12,2 C 11,7 C 100 % 991,4 hPa 0,0 l/m 0 min 2 min 0 W/m 0,0 km/h (0 Bft) 100,00 %
02.11.2019 05:00 12,7 C 12,2 C 11,7 C 100 % 991,4 hPa 0,2 l/m 0 min 2 min 0 W/m 12,9 km/h (3 Bft) 97,87 %
02.11.2019 05:02 12,7 C 12,2 C 11,7 C 100 % 991,4 hPa 0,0 l/m 0 min 2 min 0 W/m 12,9 km/h (3 Bft) 100,00 %
02.11.2019 05:04 12,7 C 12,2 C 11,7 C 100 % 991,3 hPa 0,0 l/m 0 min 2 min 0 W/m 12,9 km/h (3 Bft) 100,00 %
02.11.2019 05:06 12,7 C 12,2 C 11,7 C 100 % 991,2 hPa 0,0 l/m 0 min 2 min 0 W/m 12,9 km/h (3 Bft) 100,00 %
02.11.2019 05:08 12,8 C 12,2 C 11,7 C 100 % 991,1 hPa 0,0 l/m 0 min 0 min 0 W/m 16,1 km/h (3 Bft) 97,87 %
02.11.2019 05:10 12,8 C 12,2 C 11,7 C 100 % 991,1 hPa 0,0 l/m 0 min 0 min 0 W/m 16,1 km/h (3 Bft) 100,00 %
02.11.2019 05:12 12,8 C 12,2 C 11,7 C 100 % 991,1 hPa 0,2 l/m 0 min 2 min 0 W/m 12,9 km/h (3 Bft) 100,00 %
02.11.2019 05:14 12,8 C 12,2 C 11,7 C 100 % 991,1 hPa 0,0 l/m 0 min 2 min 0 W/m 6,4 km/h (2 Bft) 100,00 %
02.11.2019 05:16 12,9 C 12,2 C 11,7 C 100 % 991,1 hPa 0,0 l/m 0 min 2 min 0 W/m 12,9 km/h (3 Bft) 100,00 %
02.11.2019 05:18 12,9 C 12,2 C 11,7 C 100 % 991,2 hPa 0,0 l/m 0 min 2 min 0 W/m 6,4 km/h (2 Bft) 100,00 %
02.11.2019 05:20 12,9 C 12,2 C 11,7 C 100 % 991,1 hPa 0,0 l/m 0 min 0 min 0 W/m 12,9 km/h (3 Bft) 100,00 %
02.11.2019 05:22 12,9 C 12,2 C 11,7 C 100 % 991,2 hPa 0,0 l/m 0 min 2 min 0 W/m 12,9 km/h (3 Bft) 100,00 %
02.11.2019 05:24 12,9 C 12,2 C 11,7 C 100 % 991,2 hPa 0,0 l/m 0 min 0 min 0 W/m 12,9 km/h (3 Bft) 100,00 %
02.11.2019 05:26 12,9 C 12,2 C 11,7 C 100 % 991,2 hPa 0,0 l/m 0 min 0 min 0 W/m 16,1 km/h (3 Bft) 97,87 %
02.11.2019 05:28 12,9 C 12,2 C 11,7 C 100 % 991,2 hPa 0,0 l/m 0 min 0 min 0 W/m 16,1 km/h (3 Bft) 95,65 %
02.11.2019 05:30 12,9 C 12,2 C 11,7 C 100 % 991,2 hPa 0,0 l/m 0 min 0 min 0 W/m 6,4 km/h (2 Bft) 97,87 %
02.11.2019 05:32 12,9 C 12,2 C 11,7 C 100 % 991,1 hPa 0,0 l/m 0 min 0 min 0 W/m 19,3 km/h (3 Bft) 97,87 %
02.11.2019 05:34 12,9 C 12,2 C 11,7 C 100 % 991,2 hPa 0,0 l/m 0 min 0 min 0 W/m 16,1 km/h (3 Bft) 97,87 %
02.11.2019 05:36 12,9 C 12,2 C 11,7 C 100 % 991,2 hPa 0,0 l/m 0 min 0 min 0 W/m 12,9 km/h (3 Bft) 97,87 %
02.11.2019 05:38 12,9 C 12,2 C 11,7 C 100 % 991,1 hPa 0,0 l/m 0 min 0 min 0 W/m 3,2 km/h (1 Bft) 97,87 %
02.11.2019 05:40 12,9 C 12,2 C 11,7 C 100 % 991,1 hPa 0,0 l/m 0 min 0 min 0 W/m 12,9 km/h (3 Bft) 97,83 %
02.11.2019 05:42 12,9 C 12,2 C 11,7 C 100 % 991,1 hPa 0,0 l/m 0 min 2 min 0 W/m 6,4 km/h (2 Bft) 97,87 %
02.11.2019 05:44 13,0 C 12,2 C 11,7 C 100 % 991,0 hPa 0,0 l/m 0 min 2 min 0 W/m 12,9 km/h (3 Bft) 95,74 %
02.11.2019 05:46 13,0 C 12,2 C 11,7 C 100 % 991,0 hPa 0,2 l/m 0 min 0 min 0 W/m 3,2 km/h (1 Bft) 97,87 %
02.11.2019 05:48 13,0 C 12,2 C 11,7 C 100 % 990,9 hPa 0,0 l/m 0 min 0 min 0 W/m 6,4 km/h (2 Bft) 97,87 %
02.11.2019 05:50 13,1 C 12,2 C 11,7 C 100 % 990,9 hPa 0,0 l/m 0 min 0 min 0 W/m 3,2 km/h (1 Bft) 97,83 %
02.11.2019 05:52 13,1 C 12,2 C 11,7 C 100 % 990,9 hPa 0,0 l/m 0 min 0 min 0 W/m 6,4 km/h (2 Bft) 97,87 %
02.11.2019 05:54 13,1 C 12,2 C 11,7 C 100 % 990,9 hPa 0,0 l/m 0 min 0 min 0 W/m 6,4 km/h (2 Bft) 97,87 %
02.11.2019 05:56 13,1 C 12,2 C 11,7 C 100 % 991,0 hPa 0,0 l/m 0 min 0 min 0 W/m 6,4 km/h (2 Bft) 100,00 %
02.11.2019 05:58 13,1 C 12,2 C 11,7 C 100 % 991,0 hPa 0,0 l/m 0 min 0 min 0 W/m 6,4 km/h (2 Bft) 97,87 %
02.11.2019 06:00 13,1 C 12,2 C 11,7 C 100 % 991,0 hPa 0,0 l/m 0 min 0 min 0 W/m 6,4 km/h (2 Bft) 97,87 %
02.11.2019 06:02 13,1 C 12,2 C 11,7 C 100 % 991,0 hPa 0,0 l/m 0 min 0 min 0 W/m 0,0 km/h (0 Bft) 95,65 %
02.11.2019 06:04 13,1 C 12,2 C 11,7 C 100 % 990,9 hPa 0,0 l/m 0 min 0 min 0 W/m 12,9 km/h (3 Bft) 97,87 %
02.11.2019 06:08 13,2 C 12,2 C 11,7 C 100 % 990,9 hPa 0,0 l/m 0 min 0 min 0 W/m 6,4 km/h (2 Bft) 98,94 %
02.11.2019 06:10 13,2 C 12,2 C 11,7 C 100 % 991,0 hPa 0,0 l/m 0 min 0 min 0 W/m 6,4 km/h (2 Bft) 100,00 %
02.11.2019 06:12 13,2 C 12,2 C 11,7 C 100 % 990,9 hPa 0,0 l/m 0 min 0 min 0 W/m 16,1 km/h (3 Bft) 97,87 %
02.11.2019 06:14 13,2 C 12,2 C 11,7 C 100 % 990,9 hPa 0,0 l/m 0 min 0 min 0 W/m 6,4 km/h (2 Bft) 100,00 %
02.11.2019 06:16 13,2 C 12,2 C 11,7 C 100 % 990,9 hPa 0,0 l/m 0 min 0 min 0 W/m 12,9 km/h (3 Bft) 100,00 %
02.11.2019 06:18 13,2 C 12,2 C 11,7 C 100 % 991,0 hPa 0,0 l/m 0 min 0 min 0 W/m 16,1 km/h (3 Bft) 97,87 %
02.11.2019 06:20 13,2 C 12,2 C 11,7 C 100 % 991,0 hPa 0,0 l/m 0 min 2 min 0 W/m 6,4 km/h (2 Bft) 100,00 %
02.11.2019 06:22 13,2 C 12,2 C 11,7 C 100 % 990,9 hPa 0,0 l/m 0 min 2 min 0 W/m 6,4 km/h (2 Bft) 100,00 %
02.11.2019 06:24 13,2 C 12,2 C 11,7 C 100 % 991,0 hPa 0,0 l/m 0 min 2 min 0 W/m 12,9 km/h (3 Bft) 97,87 %
02.11.2019 06:26 13,3 C 12,2 C 11,7 C 100 % 990,9 hPa 0,2 l/m 0 min 2 min 0 W/m 12,9 km/h (3 Bft) 97,83 %
02.11.2019 06:28 13,3 C 12,2 C 11,7 C 100 % 990,8 hPa 0,0 l/m 0 min 2 min 0 W/m 16,1 km/h (3 Bft) 97,87 %
02.11.2019 06:30 13,3 C 12,2 C 11,7 C 100 % 990,8 hPa 0,0 l/m 0 min 2 min 0 W/m 6,4 km/h (2 Bft) 95,74 %
02.11.2019 06:32 13,3 C 12,2 C 11,7 C 100 % 990,8 hPa 0,0 l/m 0 min 0 min 0 W/m 16,1 km/h (3 Bft) 97,87 %
02.11.2019 06:34 13,3 C 12,2 C 11,7 C 100 % 990,8 hPa 0,0 l/m 0 min 0 min 0 W/m 16,1 km/h (3 Bft) 97,87 %
02.11.2019 06:36 13,3 C 12,2 C 11,7 C 100 % 990,7 hPa 0,0 l/m 0 min 0 min 0 W/m 12,9 km/h (3 Bft) 97,87 %
02.11.2019 06:38 13,3 C 12,2 C 11,7 C 100 % 990,8 hPa 0,0 l/m 0 min 0 min 0 W/m 6,4 km/h (2 Bft) 97,56 %
02.11.2019 06:40 13,3 C 12,2 C 11,7 C 100 % 990,8 hPa 0,0 l/m 0 min 0 min 0 W/m 6,4 km/h (2 Bft) 95,74 %
02.11.2019 06:42 13,3 C 12,2 C 11,7 C 100 % 990,8 hPa 0,0 l/m 0 min 0 min 0 W/m 12,9 km/h (3 Bft) 97,87 %
02.11.2019 06:44 13,3 C 12,2 C 11,7 C 100 % 990,8 hPa 0,0 l/m 0 min 0 min 0 W/m 6,4 km/h (2 Bft) 95,74 %
02.11.2019 06:46 13,3 C 12,2 C 11,7 C 100 % 990,8 hPa 0,0 l/m 0 min 0 min 0 W/m 6,4 km/h (2 Bft) 97,87 %
02.11.2019 06:48 13,3 C 12,2 C 11,7 C 100 % 990,7 hPa 0,0 l/m 0 min 0 min 0 W/m 12,9 km/h (3 Bft) 97,83 %
02.11.2019 06:50 13,3 C 12,2 C 12,2 C 100 % 990,7 hPa 0,0 l/m 0 min 0 min 0 W/m 12,9 km/h (3 Bft) 93,62 %
02.11.2019 06:52 13,3 C 12,2 C 11,7 C 100 % 990,7 hPa 0,0 l/m 0 min 0 min 0 W/m 6,4 km/h (2 Bft) 93,62 %
02.11.2019 06:54 13,3 C 12,2 C 11,7 C 100 % 990,7 hPa 0,0 l/m 0 min 0 min 0 W/m 3,2 km/h (1 Bft) 95,74 %
02.11.2019 06:56 13,3 C 12,2 C 11,7 C 100 % 990,8 hPa 0,0 l/m 0 min 0 min 0 W/m 3,2 km/h (1 Bft) 95,74 %
02.11.2019 06:58 13,3 C 12,2 C 11,7 C 100 % 990,7 hPa 0,0 l/m 0 min 0 min 0 W/m 0,0 km/h (0 Bft) 95,74 %
02.11.2019 07:00 13,3 C 12,2 C 11,7 C 100 % 990,7 hPa 0,0 l/m 0 min 0 min 0 W/m 3,2 km/h (1 Bft) 95,65 %
02.11.2019 07:02 13,3 C 12,2 C 11,7 C 100 % 990,7 hPa 0,0 l/m 0 min 0 min 0 W/m 0,0 km/h (0 Bft) 93,62 %
02.11.2019 07:04 13,3 C 12,2 C 11,7 C 100 % 990,7 hPa 0,0 l/m 0 min 0 min 0 W/m 3,2 km/h (1 Bft) 95,74 %
02.11.2019 07:06 13,3 C 12,2 C 11,7 C 100 % 990,7 hPa 0,0 l/m 0 min 0 min 0 W/m 12,9 km/h (3 Bft) 95,74 %
02.11.2019 07:08 13,3 C 12,2 C 11,7 C 100 % 990,7 hPa 0,0 l/m 0 min 0 min 0 W/m 3,2 km/h (1 Bft) 95,74 %
02.11.2019 07:10 13,3 C 12,2 C 11,7 C 100 % 990,7 hPa 0,0 l/m 0 min 0 min 0 W/m 6,4 km/h (2 Bft) 93,62 %
02.11.2019 07:12 13,3 C 12,2 C 11,7 C 100 % 990,7 hPa 0,0 l/m 0 min 0 min 0 W/m 6,4 km/h (2 Bft) 95,65 %
02.11.2019 07:14 13,3 C 12,2 C 11,7 C 100 % 990,7 hPa 0,0 l/m 0 min 0 min 0 W/m 0,0 km/h (0 Bft) 95,74 %
02.11.2019 07:16 13,3 C 12,2 C 11,7 C 100 % 990,7 hPa 0,0 l/m 0 min 0 min 0 W/m 3,2 km/h (1 Bft) 95,74 %
02.11.2019 07:18 13,3 C 12,2 C 11,7 C 100 % 990,7 hPa 0,0 l/m 0 min 0 min 0 W/m 6,4 km/h (2 Bft) 97,87 %
02.11.2019 07:20 13,3 C 12,2 C 11,7 C 100 % 990,7 hPa 0,0 l/m 0 min 0 min 0 W/m 12,9 km/h (3 Bft) 97,87 %
02.11.2019 07:22 13,3 C 12,2 C 11,7 C 100 % 990,7 hPa 0,0 l/m 0 min 0 min 0 W/m 12,9 km/h (3 Bft) 93,48 %
02.11.2019 07:24 13,3 C 12,2 C 11,7 C 100 % 990,7 hPa 0,0 l/m 0 min 0 min 0 W/m 16,1 km/h (3 Bft) 97,87 %
02.11.2019 07:26 13,3 C 12,8 C 11,7 C 100 % 990,7 hPa 0,0 l/m 0 min 0 min 0 W/m 16,1 km/h (3 Bft) 97,87 %
02.11.2019 07:28 13,3 C 12,8 C 11,7 C 100 % 990,7 hPa 0,0 l/m 0 min 0 min 0 W/m 3,2 km/h (1 Bft) 97,87 %
02.11.2019 07:30 13,3 C 12,8 C 11,7 C 100 % 990,7 hPa 0,0 l/m 0 min 0 min 0 W/m 6,4 km/h (2 Bft) 97,87 %
02.11.2019 07:32 13,3 C 12,8 C 11,7 C 100 % 990,8 hPa 0,0 l/m 0 min 0 min 0 W/m 12,9 km/h (3 Bft) 95,74 %
02.11.2019 07:34 13,3 C 12,8 C 12,2 C 100 % 990,8 hPa 0,0 l/m 0 min 2 min 0 W/m 6,4 km/h (2 Bft) 97,83 %
02.11.2019 07:36 13,3 C 12,8 C 12,2 C 100 % 990,9 hPa 0,0 l/m 0 min 2 min 0 W/m 12,9 km/h (3 Bft) 97,87 %
02.11.2019 07:38 13,4 C 12,8 C 12,2 C 100 % 991,0 hPa 0,2 l/m 0 min 2 min 0 W/m 3,2 km/h (1 Bft) 97,87 %
02.11.2019 07:40 13,4 C 12,8 C 12,2 C 100 % 991,0 hPa 0,0 l/m 0 min 2 min 0 W/m 12,9 km/h (3 Bft) 97,87 %
02.11.2019 07:42 13,4 C 12,8 C 12,2 C 100 % 991,0 hPa 0,0 l/m 0 min 2 min 0 W/m 19,3 km/h (3 Bft) 97,87 %
02.11.2019 07:44 13,4 C 12,8 C 12,2 C 100 % 991,0 hPa 0,0 l/m 0 min 2 min 0 W/m 19,3 km/h (3 Bft) 95,74 %
02.11.2019 07:46 13,4 C 12,8 C 12,2 C 100 % 991,1 hPa 0,2 l/m 0 min 2 min 0 W/m 12,9 km/h (3 Bft) 100,00 %
02.11.2019 07:48 13,5 C 12,8 C 12,2 C 100 % 990,9 hPa 0,0 l/m 0 min 2 min 0 W/m 16,1 km/h (3 Bft) 100,00 %
02.11.2019 07:50 13,5 C 12,2 C 12,2 C 100 % 991,0 hPa 0,2 l/m 0 min 2 min 0 W/m 22,5 km/h (4 Bft) 97,87 %
02.11.2019 07:52 13,5 C 12,2 C 11,7 C 100 % 991,1 hPa 0,0 l/m 0 min 2 min 0 W/m 22,5 km/h (4 Bft) 91,49 %
02.11.2019 07:54 13,4 C 12,2 C 11,7 C 100 % 990,9 hPa 0,0 l/m 0 min 2 min 0 W/m 16,1 km/h (3 Bft) 95,74 %
02.11.2019 07:56 13,4 C 12,2 C 11,7 C 100 % 990,9 hPa 0,2 l/m 0 min 2 min 0 W/m 29,0 km/h (5 Bft) 95,74 %
02.11.2019 07:58 13,4 C 12,8 C 12,2 C 100 % 991,0 hPa 0,0 l/m 0 min 2 min 6 W/m 29,0 km/h (5 Bft) 97,83 %
02.11.2019 08:00 13,4 C 12,8 C 12,2 C 100 % 991,1 hPa 0,0 l/m 0 min 0 min 9 W/m 45,1 km/h (6 Bft) 97,87 %
02.11.2019 08:02 13,5 C 12,8 C 12,2 C 100 % 991,0 hPa 0,0 l/m 0 min 0 min 12 W/m 22,5 km/h (4 Bft) 97,87 %
02.11.2019 08:04 13,6 C 12,8 C 12,2 C 100 % 991,1 hPa 0,0 l/m 0 min 0 min 20 W/m 19,3 km/h (3 Bft) 97,87 %
02.11.2019 08:06 13,6 C 12,8 C 12,2 C 100 % 991,1 hPa 0,0 l/m 0 min 0 min 16 W/m 19,3 km/h (3 Bft) 95,74 %
02.11.2019 08:08 13,6 C 12,8 C 12,2 C 100 % 991,0 hPa 0,0 l/m 0 min 0 min 15 W/m 25,7 km/h (4 Bft) 97,87 %
02.11.2019 08:10 13,6 C 12,8 C 12,2 C 100 % 991,1 hPa 0,0 l/m 0 min 0 min 17 W/m 22,5 km/h (4 Bft) 97,83 %
02.11.2019 08:12 13,6 C 12,8 C 12,2 C 100 % 991,1 hPa 0,0 l/m 0 min 0 min 17 W/m 19,3 km/h (3 Bft) 97,87 %
02.11.2019 08:14 13,6 C 12,8 C 12,2 C 100 % 991,1 hPa 0,0 l/m 0 min 0 min 18 W/m 25,7 km/h (4 Bft) 95,74 %
02.11.2019 08:16 13,6 C 12,8 C 12,2 C 100 % 991,1 hPa 0,0 l/m 0 min 0 min 18 W/m 25,7 km/h (4 Bft) 97,87 %
02.11.2019 08:18 13,6 C 12,8 C 12,2 C 100 % 991,2 hPa 0,0 l/m 0 min 0 min 19 W/m 19,3 km/h (3 Bft) 97,87 %
02.11.2019 08:20 13,6 C 12,8 C 12,2 C 100 % 991,2 hPa 0,0 l/m 0 min 0 min 19 W/m 16,1 km/h (3 Bft) 97,87 %
02.11.2019 08:22 13,6 C 12,8 C 12,2 C 100 % 991,3 hPa 0,0 l/m 0 min 0 min 21 W/m 16,1 km/h (3 Bft) 97,83 %
02.11.2019 08:24 13,6 C 12,8 C 12,2 C 100 % 991,3 hPa 0,0 l/m 0 min 0 min 23 W/m 16,1 km/h (3 Bft) 95,74 %
02.11.2019 08:26 13,6 C 12,8 C 12,2 C 100 % 991,3 hPa 0,0 l/m 0 min 0 min 25 W/m 19,3 km/h (3 Bft) 91,49 %
02.11.2019 08:28 13,6 C 12,8 C 12,2 C 100 % 991,4 hPa 0,0 l/m 0 min 0 min 26 W/m 16,1 km/h (3 Bft) 97,87 %
02.11.2019 08:30 13,6 C 12,8 C 12,2 C 100 % 991,4 hPa 0,0 l/m 0 min 0 min 27 W/m 19,3 km/h (3 Bft) 97,87 %
02.11.2019 08:32 13,6 C 12,8 C 12,2 C 100 % 991,4 hPa 0,0 l/m 0 min 0 min 28 W/m 12,9 km/h (3 Bft) 97,83 %
02.11.2019 08:34 13,6 C 12,8 C 12,2 C 100 % 991,4 hPa 0,0 l/m 0 min 0 min 34 W/m 12,9 km/h (3 Bft) 100,00 %
02.11.2019 08:36 13,6 C 12,8 C 12,2 C 100 % 991,5 hPa 0,0 l/m 0 min 0 min 38 W/m 16,1 km/h (3 Bft) 100,00 %
02.11.2019 08:38 13,6 C 12,8 C 12,2 C 100 % 991,5 hPa 0,0 l/m 0 min 0 min 39 W/m 22,5 km/h (4 Bft) 100,00 %
02.11.2019 08:40 13,6 C 12,8 C 12,2 C 100 % 991,5 hPa 0,0 l/m 0 min 0 min 49 W/m 19,3 km/h (3 Bft) 97,87 %
02.11.2019 08:42 13,6 C 12,8 C 12,2 C 100 % 991,5 hPa 0,0 l/m 0 min 0 min 43 W/m 12,9 km/h (3 Bft) 100,00 %
02.11.2019 08:44 13,6 C 12,8 C 12,2 C 100 % 991,4 hPa 0,0 l/m 0 min 0 min 47 W/m 12,9 km/h (3 Bft) 100,00 %
02.11.2019 08:46 13,6 C 12,8 C 12,2 C 100 % 991,4 hPa 0,0 l/m 0 min 0 min 64 W/m 19,3 km/h (3 Bft) 100,00 %
02.11.2019 08:48 13,6 C 12,8 C 12,2 C 100 % 991,4 hPa 0,0 l/m 0 min 0 min 65 W/m 16,1 km/h (3 Bft) 100,00 %
02.11.2019 08:50 13,6 C 12,8 C 12,2 C 100 % 991,3 hPa 0,0 l/m 0 min 0 min 43 W/m 16,1 km/h (3 Bft) 100,00 %
02.11.2019 08:52 13,6 C 12,8 C 12,2 C 100 % 991,4 hPa 0,0 l/m 0 min 0 min 38 W/m 6,4 km/h (2 Bft) 100,00 %
02.11.2019 08:54 13,6 C 12,8 C 12,2 C 100 % 991,5 hPa 0,0 l/m 0 min 0 min 35 W/m 19,3 km/h (3 Bft) 100,00 %
02.11.2019 08:56 13,6 C 12,8 C 12,2 C 100 % 991,3 hPa 0,0 l/m 0 min 0 min 35 W/m 12,9 km/h (3 Bft) 97,83 %
02.11.2019 08:58 13,6 C 12,8 C 12,2 C 100 % 991,3 hPa 0,0 l/m 0 min 0 min 41 W/m 6,4 km/h (2 Bft) 100,00 %
02.11.2019 09:00 13,6 C 12,8 C 12,2 C 100 % 991,2 hPa 0,0 l/m 0 min 0 min 44 W/m 6,4 km/h (2 Bft) 100,00 %
02.11.2019 09:02 13,6 C 12,8 C 12,2 C 100 % 991,3 hPa 0,0 l/m 0 min 0 min 46 W/m 3,2 km/h (1 Bft) 97,87 %
02.11.2019 09:04 13,5 C 12,8 C 12,2 C 100 % 991,3 hPa 0,0 l/m 0 min 0 min 49 W/m 16,1 km/h (3 Bft) 100,00 %
02.11.2019 09:06 13,5 C 12,8 C 12,2 C 100 % 991,2 hPa 0,0 l/m 0 min 0 min 48 W/m 6,4 km/h (2 Bft) 97,87 %
02.11.2019 09:08 13,5 C 12,8 C 12,2 C 100 % 991,2 hPa 0,0 l/m 0 min 0 min 53 W/m 19,3 km/h (3 Bft) 100,00 %
02.11.2019 09:10 13,5 C 12,8 C 12,2 C 100 % 991,3 hPa 0,0 l/m 0 min 0 min 64 W/m 6,4 km/h (2 Bft) 100,00 %
02.11.2019 09:12 13,5 C 12,8 C 12,2 C 100 % 991,3 hPa 0,0 l/m 0 min 0 min 66 W/m 12,9 km/h (3 Bft) 100,00 %
02.11.2019 09:14 13,5 C 12,8 C 12,2 C 100 % 991,2 hPa 0,0 l/m 0 min 0 min 63 W/m 19,3 km/h (3 Bft) 100,00 %
02.11.2019 09:16 13,5 C 12,8 C 12,2 C 100 % 991,3 hPa 0,0 l/m 0 min 0 min 62 W/m 12,9 km/h (3 Bft) 97,87 %
02.11.2019 09:18 13,5 C 12,8 C 12,2 C 100 % 991,3 hPa 0,0 l/m 0 min 0 min 65 W/m 6,4 km/h (2 Bft) 97,87 %
02.11.2019 09:20 13,6 C 12,8 C 12,2 C 100 % 991,4 hPa 0,0 l/m 0 min 0 min 62 W/m 6,4 km/h (2 Bft) 97,83 %
02.11.2019 09:22 13,6 C 12,8 C 12,2 C 100 % 991,4 hPa 0,0 l/m 0 min 0 min 61 W/m 16,1 km/h (3 Bft) 100,00 %
02.11.2019 09:24 13,6 C 12,8 C 12,2 C 100 % 991,5 hPa 0,0 l/m 0 min 0 min 69 W/m 16,1 km/h (3 Bft) 100,00 %
02.11.2019 09:26 13,6 C 13,3 C 12,2 C 100 % 991,5 hPa 0,0 l/m 0 min 0 min 82 W/m 16,1 km/h (3 Bft) 100,00 %
02.11.2019 09:28 13,6 C 13,3 C 12,2 C 100 % 991,5 hPa 0,0 l/m 0 min 0 min 89 W/m 16,1 km/h (3 Bft) 100,00 %
02.11.2019 09:30 13,6 C 13,3 C 12,2 C 100 % 991,5 hPa 0,0 l/m 0 min 0 min 84 W/m 6,4 km/h (2 Bft) 97,87 %
02.11.2019 09:32 13,6 C 13,3 C 12,2 C 100 % 991,4 hPa 0,0 l/m 0 min 0 min 85 W/m 6,4 km/h (2 Bft) 97,83 %
02.11.2019 09:34 13,6 C 13,3 C 12,8 C 100 % 991,4 hPa 0,0 l/m 0 min 0 min 96 W/m 12,9 km/h (3 Bft) 97,87 %
02.11.2019 09:36 13,7 C 13,3 C 12,8 C 100 % 991,5 hPa 0,0 l/m 0 min 0 min 100 W/m 16,1 km/h (3 Bft) 97,87 %
02.11.2019 09:38 13,7 C 13,3 C 12,8 C 100 % 991,4 hPa 0,0 l/m 0 min 0 min 87 W/m 19,3 km/h (3 Bft) 97,87 %
02.11.2019 09:40 13,7 C 13,3 C 12,8 C 100 % 991,4 hPa 0,0 l/m 0 min 0 min 90 W/m 16,1 km/h (3 Bft) 97,87 %
02.11.2019 09:42 13,7 C 13,3 C 12,8 C 100 % 991,5 hPa 0,0 l/m 0 min 0 min 87 W/m 16,1 km/h (3 Bft) 97,83 %
02.11.2019 09:44 13,7 C 13,3 C 12,2 C 100 % 991,5 hPa 0,0 l/m 0 min 0 min 84 W/m 16,1 km/h (3 Bft) 95,74 %
02.11.2019 09:46 13,7 C 13,3 C 12,2 C 100 % 991,5 hPa 0,0 l/m 0 min 0 min 70 W/m 12,9 km/h (3 Bft) 95,74 %
02.11.2019 09:48 13,7 C 13,3 C 12,2 C 100 % 991,6 hPa 0,0 l/m 0 min 0 min 70 W/m 6,4 km/h (2 Bft) 97,87 %
02.11.2019 09:50 13,7 C 13,3 C 12,2 C 100 % 991,5 hPa 0,0 l/m 0 min 0 min 73 W/m 19,3 km/h (3 Bft) 95,74 %
02.11.2019 09:52 13,7 C 13,3 C 12,2 C 100 % 991,6 hPa 0,0 l/m 0 min 0 min 58 W/m 25,7 km/h (4 Bft) 97,87 %
02.11.2019 09:54 13,7 C 13,3 C 12,8 C 100 % 991,6 hPa 0,0 l/m 0 min 0 min 56 W/m 19,3 km/h (3 Bft) 95,65 %
02.11.2019 09:56 13,7 C 13,3 C 12,8 C 100 % 991,6 hPa 0,0 l/m 0 min 0 min 63 W/m 19,3 km/h (3 Bft) 97,87 %
02.11.2019 09:58 13,7 C 13,3 C 12,8 C 100 % 991,6 hPa 0,0 l/m 0 min 0 min 93 W/m 19,3 km/h (3 Bft) 97,87 %
02.11.2019 10:00 13,7 C 13,3 C 12,8 C 100 % 991,7 hPa 0,0 l/m 0 min 0 min 81 W/m 19,3 km/h (3 Bft) 97,87 %
02.11.2019 10:02 13,7 C 13,3 C 12,8 C 100 % 991,7 hPa 0,0 l/m 0 min 0 min 82 W/m 16,1 km/h (3 Bft) 97,87 %
02.11.2019 10:04 13,7 C 13,3 C 13,3 C 100 % 991,6 hPa 0,0 l/m 0 min 0 min 116 W/m 16,1 km/h (3 Bft) 95,74 %
02.11.2019 10:06 13,8 C 13,3 C 13,3 C 100 % 991,5 hPa 0,0 l/m 0 min 0 min 118 W/m 22,5 km/h (4 Bft) 95,65 %
02.11.2019 10:08 13,8 C 13,9 C 13,3 C 100 % 991,7 hPa 0,0 l/m 0 min 0 min 135 W/m 22,5 km/h (4 Bft) 91,49 %
02.11.2019 10:10 13,8 C 13,9 C 13,3 C 100 % 991,6 hPa 0,0 l/m 2 min 0 min 209 W/m 12,9 km/h (3 Bft) 97,87 %
02.11.2019 10:12 13,8 C 14,4 C 13,3 C 100 % 991,4 hPa 0,0 l/m 2 min 0 min 247 W/m 22,5 km/h (4 Bft) 94,12 %
02.11.2019 10:14 13,9 C 14,4 C 13,3 C 100 % 991,3 hPa 0,0 l/m 0 min 0 min 159 W/m 16,1 km/h (3 Bft) 100,00 %
02.11.2019 10:16 13,9 C 14,4 C 13,3 C 100 % 991,4 hPa 0,0 l/m 2 min 0 min 179 W/m 19,3 km/h (3 Bft) 100,00 %
02.11.2019 10:18 14,0 C 14,4 C 13,3 C 100 % 991,2 hPa 0,0 l/m 2 min 0 min 199 W/m 16,1 km/h (3 Bft) 95,65 %
02.11.2019 10:20 14,0 C 14,4 C 13,3 C 100 % 991,2 hPa 0,0 l/m 2 min 0 min 249 W/m 16,1 km/h (3 Bft) 93,62 %
02.11.2019 10:22 14,1 C 15,0 C 13,9 C 100 % 991,2 hPa 0,0 l/m 2 min 0 min 243 W/m 22,5 km/h (4 Bft) 100,00 %
02.11.2019 10:24 14,1 C 15,0 C 13,9 C 100 % 991,2 hPa 0,0 l/m 2 min 0 min 244 W/m 16,1 km/h (3 Bft) 93,62 %
02.11.2019 10:26 14,2 C 15,0 C 13,9 C 100 % 991,3 hPa 0,0 l/m 2 min 0 min 192 W/m 3,2 km/h (1 Bft) 95,74 %
02.11.2019 10:28 14,2 C 14,4 C 13,9 C 100 % 991,2 hPa 0,0 l/m 0 min 0 min 121 W/m 12,9 km/h (3 Bft) 93,48 %
02.11.2019 10:30 14,3 C 14,4 C 13,9 C 100 % 991,2 hPa 0,0 l/m 0 min 0 min 162 W/m 29,0 km/h (5 Bft) 95,74 %
02.11.2019 10:32 14,3 C 14,4 C 13,9 C 100 % 991,2 hPa 0,0 l/m 0 min 0 min 166 W/m 22,5 km/h (4 Bft) 93,62 %
02.11.2019 10:34 14,3 C 14,4 C 13,9 C 100 % 991,2 hPa 0,0 l/m 2 min 0 min 183 W/m 22,5 km/h (4 Bft) 95,74 %
02.11.2019 10:36 14,3 C 14,4 C 13,9 C 100 % 991,2 hPa 0,0 l/m 2 min 0 min 182 W/m 16,1 km/h (3 Bft) 95,74 %
02.11.2019 10:38 14,3 C 14,4 C 13,9 C 100 % 991,3 hPa 0,0 l/m 2 min 0 min 216 W/m 19,3 km/h (3 Bft) 89,36 %
02.11.2019 10:40 14,3 C 14,4 C 13,9 C 100 % 991,3 hPa 0,0 l/m 2 min 0 min 194 W/m 12,9 km/h (3 Bft) 95,65 %
02.11.2019 10:42 14,3 C 14,4 C 13,9 C 100 % 991,4 hPa 0,0 l/m 0 min 0 min 141 W/m 16,1 km/h (3 Bft) 93,62 %
02.11.2019 10:44 14,3 C 13,9 C 13,9 C 100 % 991,5 hPa 0,0 l/m 0 min 0 min 117 W/m 29,0 km/h (5 Bft) 93,62 %
02.11.2019 10:46 14,4 C 13,9 C 13,9 C 100 % 991,5 hPa 0,0 l/m 0 min 0 min 104 W/m 22,5 km/h (4 Bft) 95,74 %
02.11.2019 10:48 14,4 C 13,9 C 13,9 C 100 % 991,5 hPa 0,0 l/m 0 min 0 min 96 W/m 25,7 km/h (4 Bft) 95,74 %
02.11.2019 10:50 14,4 C 13,9 C 13,9 C 100 % 991,5 hPa 0,0 l/m 0 min 0 min 82 W/m 16,1 km/h (3 Bft) 95,74 %
02.11.2019 10:52 14,4 C 13,9 C 13,9 C 100 % 991,6 hPa 0,0 l/m 0 min 0 min 67 W/m 22,5 km/h (4 Bft) 95,65 %
02.11.2019 10:54 14,4 C 13,3 C 13,3 C 99 % 991,5 hPa 0,0 l/m 0 min 0 min 53 W/m 22,5 km/h (4 Bft) 95,74 %
02.11.2019 10:56 14,4 C 13,3 C 13,3 C 99 % 991,5 hPa 0,0 l/m 0 min 0 min 44 W/m 22,5 km/h (4 Bft) 95,74 %
02.11.2019 10:58 14,4 C 13,3 C 13,3 C 99 % 991,6 hPa 0,0 l/m 0 min 0 min 36 W/m 16,1 km/h (3 Bft) 97,87 %
02.11.2019 11:00 14,4 C 13,3 C 13,3 C 98 % 991,5 hPa 0,0 l/m 0 min 0 min 37 W/m 16,1 km/h (3 Bft) 97,87 %
02.11.2019 11:02 14,4 C 13,3 C 13,3 C 98 % 991,5 hPa 0,0 l/m 0 min 0 min 40 W/m 25,7 km/h (4 Bft) 97,87 %
02.11.2019 11:04 14,4 C 13,3 C 13,3 C 98 % 991,5 hPa 0,0 l/m 0 min 0 min 41 W/m 19,3 km/h (3 Bft) 95,65 %
02.11.2019 11:06 14,4 C 13,3 C 13,3 C 98 % 991,5 hPa 0,0 l/m 0 min 0 min 38 W/m 25,7 km/h (4 Bft) 97,87 %
02.11.2019 11:08 14,4 C 13,3 C 13,3 C 97 % 991,5 hPa 0,0 l/m 0 min 0 min 39 W/m 29,0 km/h (5 Bft) 97,87 %
02.11.2019 11:10 14,4 C 13,3 C 13,3 C 97 % 991,5 hPa 0,0 l/m 0 min 0 min 40 W/m 19,3 km/h (3 Bft) 100,00 %
02.11.2019 11:12 14,5 C 13,3 C 13,3 C 97 % 991,5 hPa 0,0 l/m 0 min 0 min 46 W/m 19,3 km/h (3 Bft) 97,87 %
02.11.2019 11:14 14,5 C 13,3 C 13,3 C 96 % 991,5 hPa 0,0 l/m 0 min 0 min 53 W/m 16,1 km/h (3 Bft) 100,00 %
02.11.2019 11:16 14,5 C 13,9 C 13,3 C 96 % 991,6 hPa 0,0 l/m 0 min 0 min 58 W/m 19,3 km/h (3 Bft) 100,00 %
02.11.2019 11:18 14,5 C 13,9 C 13,3 C 96 % 991,5 hPa 0,0 l/m 0 min 0 min 62 W/m 19,3 km/h (3 Bft) 100,00 %
02.11.2019 11:20 14,5 C 13,9 C 13,3 C 96 % 991,4 hPa 0,0 l/m 0 min 0 min 85 W/m 19,3 km/h (3 Bft) 100,00 %
02.11.2019 11:22 14,5 C 14,4 C 13,9 C 96 % 991,4 hPa 0,0 l/m 0 min 0 min 113 W/m 22,5 km/h (4 Bft) 97,87 %
02.11.2019 11:24 14,6 C 14,4 C 13,9 C 95 % 991,3 hPa 0,0 l/m 0 min 0 min 76 W/m 22,5 km/h (4 Bft) 100,00 %
02.11.2019 11:26 14,6 C 14,4 C 13,9 C 95 % 991,3 hPa 0,0 l/m 0 min 0 min 67 W/m 19,3 km/h (3 Bft) 100,00 %
02.11.2019 11:28 14,6 C 13,9 C 13,3 C 95 % 991,4 hPa 0,0 l/m 0 min 2 min 60 W/m 19,3 km/h (3 Bft) 100,00 %
02.11.2019 11:30 14,6 C 13,9 C 13,3 C 94 % 991,4 hPa 0,0 l/m 0 min 2 min 64 W/m 19,3 km/h (3 Bft) 95,74 %
02.11.2019 11:32 14,6 C 13,9 C 13,3 C 94 % 991,3 hPa 0,0 l/m 0 min 2 min 34 W/m 22,5 km/h (4 Bft) 100,00 %
02.11.2019 11:34 14,7 C 13,9 C 12,8 C 94 % 991,5 hPa 0,0 l/m 0 min 2 min 26 W/m 22,5 km/h (4 Bft) 100,00 %
02.11.2019 11:36 14,7 C 13,3 C 12,8 C 94 % 991,6 hPa 0,0 l/m 0 min 2 min 24 W/m 19,3 km/h (3 Bft) 100,00 %
02.11.2019 11:38 14,7 C 12,8 C 12,8 C 94 % 991,5 hPa 0,0 l/m 0 min 2 min 27 W/m 19,3 km/h (3 Bft) 100,00 %
02.11.2019 11:40 14,7 C 12,8 C 12,2 C 94 % 991,5 hPa 0,0 l/m 0 min 2 min 30 W/m 12,9 km/h (3 Bft) 100,00 %
02.11.2019 11:42 14,7 C 12,8 C 12,2 C 94 % 991,5 hPa 0,2 l/m 0 min 2 min 30 W/m 12,9 km/h (3 Bft) 97,87 %
02.11.2019 11:44 14,7 C 12,2 C 12,2 C 94 % 991,5 hPa 0,2 l/m 0 min 2 min 35 W/m 12,9 km/h (3 Bft) 100,00 %
02.11.2019 11:46 14,6 C 12,2 C 12,2 C 94 % 991,6 hPa 0,2 l/m 0 min 2 min 32 W/m 19,3 km/h (3 Bft) 100,00 %
02.11.2019 11:48 14,6 C 12,2 C 12,2 C 93 % 991,5 hPa 0,2 l/m 0 min 2 min 55 W/m 12,9 km/h (3 Bft) 100,00 %
02.11.2019 11:50 14,6 C 12,2 C 12,2 C 94 % 991,4 hPa 0,0 l/m 0 min 2 min 46 W/m 12,9 km/h (3 Bft) 100,00 %
02.11.2019 11:52 14,5 C 12,2 C 12,2 C 94 % 991,3 hPa 0,0 l/m 0 min 0 min 42 W/m 12,9 km/h (3 Bft) 100,00 %
02.11.2019 11:54 14,4 C 12,2 C 12,2 C 94 % 991,3 hPa 0,0 l/m 0 min 0 min 41 W/m 19,3 km/h (3 Bft) 100,00 %
02.11.2019 11:56 14,4 C 12,2 C 11,7 C 94 % 991,3 hPa 0,0 l/m 0 min 2 min 40 W/m 16,1 km/h (3 Bft) 100,00 %
02.11.2019 11:58 14,3 C 12,2 C 11,7 C 94 % 991,3 hPa 0,0 l/m 0 min 0 min 33 W/m 25,7 km/h (4 Bft) 100,00 %
02.11.2019 12:00 14,3 C 12,2 C 11,7 C 94 % 991,3 hPa 0,0 l/m 0 min 0 min 40 W/m 19,3 km/h (3 Bft) 100,00 %
02.11.2019 12:02 14,3 C 12,2 C 11,7 C 94 % 991,4 hPa 0,0 l/m 0 min 2 min 83 W/m 16,1 km/h (3 Bft) 100,00 %
02.11.2019 12:04 14,2 C 12,8 C 12,2 C 94 % 991,3 hPa 0,0 l/m 0 min 2 min 140 W/m 16,1 km/h (3 Bft) 100,00 %
02.11.2019 12:08 14,1 C 12,8 C 12,2 C 95 % 991,5 hPa 0,0 l/m 0 min 4 min 124 W/m 22,5 km/h (4 Bft) 100,00 %
02.11.2019 12:10 14,1 C 12,8 C 12,2 C 95 % 991,5 hPa 0,0 l/m 0 min 2 min 97 W/m 25,7 km/h (4 Bft) 100,00 %
02.11.2019 12:12 14,1 C 12,8 C 12,2 C 95 % 991,5 hPa 0,0 l/m 0 min 2 min 101 W/m 22,5 km/h (4 Bft) 100,00 %
02.11.2019 12:14 14,1 C 12,8 C 12,2 C 95 % 991,6 hPa 0,0 l/m 0 min 0 min 112 W/m 16,1 km/h (3 Bft) 100,00 %
02.11.2019 12:16 14,1 C 12,8 C 12,2 C 95 % 991,5 hPa 0,0 l/m 0 min 0 min 133 W/m 12,9 km/h (3 Bft) 100,00 %
02.11.2019 12:18 14,1 C 13,3 C 12,2 C 95 % 991,5 hPa 0,0 l/m 0 min 0 min 159 W/m 12,9 km/h (3 Bft) 100,00 %
02.11.2019 12:20 14,1 C 13,9 C 12,8 C 95 % 991,5 hPa 0,0 l/m 0 min 0 min 170 W/m 6,4 km/h (2 Bft) 100,00 %
02.11.2019 12:22 14,1 C 14,4 C 12,8 C 95 % 991,5 hPa 0,0 l/m 2 min 0 min 317 W/m 6,4 km/h (2 Bft) 97,87 %
02.11.2019 12:24 14,1 C 13,3 C 12,2 C 96 % 991,4 hPa 0,0 l/m 0 min 0 min 199 W/m 12,9 km/h (3 Bft) 100,00 %
02.11.2019 12:26 14,0 C 13,9 C 12,2 C 95 % 991,3 hPa 0,0 l/m 0 min 0 min 189 W/m 12,9 km/h (3 Bft) 97,83 %
02.11.2019 12:28 13,9 C 13,3 C 12,2 C 95 % 991,3 hPa 0,0 l/m 0 min 0 min 193 W/m 12,9 km/h (3 Bft) 97,87 %
02.11.2019 12:30 13,8 C 13,3 C 11,7 C 95 % 991,4 hPa 0,0 l/m 0 min 0 min 193 W/m 6,4 km/h (2 Bft) 95,74 %
02.11.2019 12:32 13,8 C 13,3 C 11,7 C 95 % 991,5 hPa 0,0 l/m 0 min 0 min 160 W/m 6,4 km/h (2 Bft) 97,87 %
02.11.2019 12:34 13,7 C 13,9 C 12,2 C 95 % 991,5 hPa 0,0 l/m 0 min 0 min 171 W/m 6,4 km/h (2 Bft) 97,87 %
02.11.2019 12:36 13,7 C 13,3 C 12,2 C 95 % 991,6 hPa 0,0 l/m 0 min 0 min 147 W/m 19,3 km/h (3 Bft) 95,65 %
02.11.2019 12:38 13,7 C 12,8 C 11,7 C 95 % 991,6 hPa 0,0 l/m 0 min 0 min 76 W/m 16,1 km/h (3 Bft) 97,87 %
02.11.2019 12:40 13,6 C 12,2 C 11,7 C 95 % 991,5 hPa 0,0 l/m 0 min 0 min 58 W/m 12,9 km/h (3 Bft) 97,87 %
02.11.2019 12:42 13,6 C 12,2 C 11,7 C 94 % 991,4 hPa 0,0 l/m 0 min 0 min 43 W/m 16,1 km/h (3 Bft) 97,87 %
02.11.2019 12:44 13,5 C 11,7 C 11,1 C 94 % 991,4 hPa 0,0 l/m 0 min 0 min 32 W/m 19,3 km/h (3 Bft) 95,74 %
02.11.2019 12:46 13,4 C 11,7 C 11,1 C 94 % 991,4 hPa 0,0 l/m 0 min 0 min 30 W/m 16,1 km/h (3 Bft) 95,74 %
02.11.2019 12:48 13,3 C 11,7 C 11,1 C 94 % 991,4 hPa 0,0 l/m 0 min 0 min 28 W/m 19,3 km/h (3 Bft) 95,65 %
02.11.2019 12:50 13,3 C 11,7 C 11,1 C 94 % 991,4 hPa 0,0 l/m 0 min 2 min 24 W/m 12,9 km/h (3 Bft) 95,74 %
02.11.2019 12:52 13,3 C 11,1 C 10,6 C 94 % 991,5 hPa 0,0 l/m 0 min 2 min 21 W/m 12,9 km/h (3 Bft) 95,74 %
02.11.2019 12:54 13,2 C 11,1 C 10,6 C 93 % 991,6 hPa 0,0 l/m 0 min 2 min 25 W/m 16,1 km/h (3 Bft) 95,74 %
02.11.2019 12:56 13,1 C 11,1 C 10,6 C 93 % 991,7 hPa 0,0 l/m 0 min 0 min 24 W/m 6,4 km/h (2 Bft) 93,62 %
02.11.2019 12:58 13,1 C 11,7 C 10,6 C 93 % 991,6 hPa 0,0 l/m 0 min 0 min 56 W/m 9,7 km/h (2 Bft) 95,74 %
02.11.2019 13:00 13,0 C 11,7 C 11,1 C 93 % 991,5 hPa 0,0 l/m 0 min 0 min 63 W/m 12,9 km/h (3 Bft) 93,48 %
02.11.2019 13:02 13,0 C 11,7 C 11,1 C 93 % 991,6 hPa 0,0 l/m 0 min 0 min 61 W/m 6,4 km/h (2 Bft) 95,74 %
02.11.2019 13:04 13,0 C 11,7 C 11,1 C 93 % 991,6 hPa 0,0 l/m 0 min 0 min 80 W/m 12,9 km/h (3 Bft) 93,62 %
02.11.2019 13:06 13,0 C 11,7 C 11,1 C 93 % 991,6 hPa 0,0 l/m 0 min 0 min 91 W/m 6,4 km/h (2 Bft) 95,74 %
02.11.2019 13:08 13,0 C 12,8 C 11,1 C 93 % 991,6 hPa 0,0 l/m 0 min 0 min 107 W/m 6,4 km/h (2 Bft) 93,62 %
02.11.2019 13:10 13,0 C 15,0 C 11,7 C 93 % 991,7 hPa 0,0 l/m 2 min 0 min 215 W/m 12,9 km/h (3 Bft) 95,74 %
02.11.2019 13:12 13,1 C 15,0 C 11,7 C 93 % 991,5 hPa 0,0 l/m 2 min 0 min 469 W/m 12,9 km/h (3 Bft) 95,65 %
02.11.2019 13:14 13,2 C 14,4 C 11,7 C 94 % 991,5 hPa 0,0 l/m 0 min 0 min 175 W/m 6,4 km/h (2 Bft) 95,74 %
02.11.2019 13:16 13,2 C 13,3 C 11,7 C 94 % 991,4 hPa 0,0 l/m 0 min 0 min 151 W/m 9,7 km/h (2 Bft) 95,74 %
02.11.2019 13:18 13,3 C 13,3 C 11,7 C 94 % 991,5 hPa 0,0 l/m 0 min 0 min 151 W/m 6,4 km/h (2 Bft) 93,48 %
02.11.2019 13:20 13,3 C 13,3 C 11,7 C 94 % 991,5 hPa 0,0 l/m 0 min 0 min 171 W/m 9,7 km/h (2 Bft) 97,87 %
02.11.2019 13:22 13,3 C 12,8 C 11,7 C 94 % 991,6 hPa 0,0 l/m 0 min 0 min 147 W/m 16,1 km/h (3 Bft) 95,74 %
02.11.2019 13:24 13,3 C 12,8 C 11,7 C 93 % 991,6 hPa 0,0 l/m 0 min 0 min 150 W/m 16,1 km/h (3 Bft) 97,83 %
02.11.2019 13:26 13,4 C 12,8 C 11,7 C 93 % 991,5 hPa 0,0 l/m 0 min 0 min 150 W/m 12,9 km/h (3 Bft) 93,62 %
02.11.2019 13:28 13,4 C 12,8 C 11,7 C 93 % 991,4 hPa 0,0 l/m 0 min 0 min 121 W/m 12,9 km/h (3 Bft) 95,74 %
02.11.2019 13:30 13,4 C 13,3 C 11,7 C 93 % 991,4 hPa 0,0 l/m 0 min 0 min 117 W/m 16,1 km/h (3 Bft) 95,74 %
02.11.2019 13:32 13,4 C 13,3 C 11,7 C 93 % 991,4 hPa 0,0 l/m 0 min 0 min 126 W/m 12,9 km/h (3 Bft) 95,74 %
02.11.2019 13:34 13,4 C 13,3 C 11,7 C 93 % 991,3 hPa 0,0 l/m 0 min 0 min 121 W/m 16,1 km/h (3 Bft) 97,83 %
02.11.2019 13:36 13,4 C 13,9 C 11,7 C 93 % 991,3 hPa 0,0 l/m 0 min 0 min 129 W/m 12,9 km/h (3 Bft) 95,74 %
02.11.2019 13:38 13,5 C 13,9 C 11,7 C 93 % 991,3 hPa 0,0 l/m 0 min 0 min 132 W/m 22,5 km/h (4 Bft) 97,87 %
02.11.2019 13:40 13,5 C 13,9 C 11,7 C 92 % 991,3 hPa 0,0 l/m 0 min 0 min 126 W/m 19,3 km/h (3 Bft) 97,87 %
02.11.2019 13:42 13,5 C 13,9 C 11,7 C 92 % 991,2 hPa 0,0 l/m 0 min 0 min 118 W/m 12,9 km/h (3 Bft) 97,87 %
02.11.2019 13:44 13,5 C 13,9 C 11,7 C 92 % 991,3 hPa 0,0 l/m 0 min 0 min 94 W/m 12,9 km/h (3 Bft) 97,87 %
02.11.2019 13:46 13,6 C 13,9 C 11,7 C 92 % 991,2 hPa 0,0 l/m 0 min 0 min 97 W/m 12,9 km/h (3 Bft) 97,83 %
02.11.2019 13:48 13,6 C 13,9 C 11,7 C 92 % 991,2 hPa 0,0 l/m 0 min 0 min 116 W/m 19,3 km/h (3 Bft) 97,87 %
02.11.2019 13:50 13,6 C 13,9 C 11,7 C 92 % 991,2 hPa 0,0 l/m 0 min 0 min 140 W/m 22,5 km/h (4 Bft) 97,87 %
02.11.2019 13:52 13,6 C 14,4 C 11,7 C 91 % 991,2 hPa 0,0 l/m 0 min 0 min 171 W/m 19,3 km/h (3 Bft) 97,87 %
02.11.2019 13:54 13,6 C 15,0 C 11,7 C 91 % 991,2 hPa 0,0 l/m 2 min 0 min 184 W/m 16,1 km/h (3 Bft) 97,87 %
02.11.2019 13:56 13,6 C 14,4 C 11,7 C 91 % 991,2 hPa 0,0 l/m 0 min 0 min 165 W/m 16,1 km/h (3 Bft) 95,74 %
02.11.2019 13:58 13,7 C 15,0 C 11,7 C 91 % 991,1 hPa 0,0 l/m 2 min 0 min 199 W/m 12,9 km/h (3 Bft) 97,87 %
02.11.2019 14:00 13,7 C 15,0 C 11,7 C 91 % 991,1 hPa 0,0 l/m 2 min 0 min 196 W/m 6,4 km/h (2 Bft) 97,83 %
02.11.2019 14:02 13,7 C 15,6 C 11,7 C 91 % 991,2 hPa 0,0 l/m 2 min 0 min 199 W/m 16,1 km/h (3 Bft) 95,74 %
02.11.2019 14:04 13,8 C 15,6 C 11,7 C 91 % 991,0 hPa 0,0 l/m 2 min 0 min 205 W/m 12,9 km/h (3 Bft) 95,74 %
02.11.2019 14:06 13,8 C 15,6 C 11,7 C 91 % 991,0 hPa 0,0 l/m 2 min 0 min 195 W/m 16,1 km/h (3 Bft) 97,87 %
02.11.2019 14:08 13,9 C 15,6 C 11,7 C 90 % 991,0 hPa 0,0 l/m 2 min 0 min 212 W/m 22,5 km/h (4 Bft) 97,87 %
02.11.2019 14:10 13,9 C 15,6 C 11,7 C 89 % 990,9 hPa 0,0 l/m 2 min 0 min 218 W/m 29,0 km/h (5 Bft) 97,83 %
02.11.2019 14:12 13,9 C 15,6 C 12,2 C 89 % 990,9 hPa 0,0 l/m 2 min 0 min 216 W/m 25,7 km/h (4 Bft) 97,87 %
02.11.2019 14:14 14,0 C 15,0 C 12,8 C 88 % 990,7 hPa 0,0 l/m 2 min 0 min 197 W/m 25,7 km/h (4 Bft) 97,87 %
02.11.2019 14:16 14,1 C 15,6 C 12,8 C 87 % 990,6 hPa 0,0 l/m 2 min 0 min 213 W/m 35,4 km/h (5 Bft) 97,87 %
02.11.2019 14:18 14,1 C 15,6 C 12,8 C 86 % 990,8 hPa 0,0 l/m 2 min 0 min 211 W/m 25,7 km/h (4 Bft) 97,87 %
02.11.2019 14:20 14,2 C 15,6 C 12,8 C 86 % 990,8 hPa 0,0 l/m 2 min 0 min 211 W/m 29,0 km/h (5 Bft) 97,87 %
02.11.2019 14:22 14,3 C 15,6 C 12,8 C 85 % 990,8 hPa 0,0 l/m 2 min 0 min 204 W/m 22,5 km/h (4 Bft) 97,83 %
02.11.2019 14:24 14,3 C 15,0 C 13,3 C 85 % 990,8 hPa 0,0 l/m 2 min 0 min 195 W/m 22,5 km/h (4 Bft) 97,87 %
02.11.2019 14:26 14,3 C 15,0 C 13,3 C 84 % 990,8 hPa 0,0 l/m 2 min 0 min 163 W/m 25,7 km/h (4 Bft) 100,00 %
02.11.2019 14:28 14,3 C 15,0 C 13,3 C 84 % 990,8 hPa 0,0 l/m 2 min 0 min 157 W/m 29,0 km/h (5 Bft) 100,00 %
02.11.2019 14:30 14,3 C 15,0 C 13,3 C 83 % 990,8 hPa 0,0 l/m 0 min 0 min 147 W/m 25,7 km/h (4 Bft) 100,00 %
02.11.2019 14:32 14,4 C 15,0 C 13,3 C 83 % 990,7 hPa 0,0 l/m 0 min 0 min 141 W/m 25,7 km/h (4 Bft) 100,00 %
02.11.2019 14:34 14,4 C 14,4 C 13,3 C 83 % 990,7 hPa 0,0 l/m 0 min 0 min 132 W/m 35,4 km/h (5 Bft) 100,00 %
02.11.2019 14:36 14,5 C 14,4 C 13,3 C 83 % 990,7 hPa 0,0 l/m 0 min 0 min 142 W/m 29,0 km/h (5 Bft) 100,00 %
02.11.2019 14:38 14,5 C 15,0 C 13,3 C 83 % 990,7 hPa 0,0 l/m 2 min 0 min 162 W/m 22,5 km/h (4 Bft) 100,00 %
02.11.2019 14:40 14,6 C 15,0 C 13,3 C 83 % 990,5 hPa 0,0 l/m 2 min 0 min 154 W/m 22,5 km/h (4 Bft) 100,00 %
02.11.2019 14:42 14,6 C 14,4 C 13,3 C 83 % 990,6 hPa 0,0 l/m 0 min 0 min 125 W/m 22,5 km/h (4 Bft) 100,00 %
02.11.2019 14:44 14,6 C 14,4 C 13,3 C 83 % 990,6 hPa 0,0 l/m 0 min 0 min 114 W/m 32,2 km/h (5 Bft) 100,00 %
02.11.2019 14:46 14,6 C 14,4 C 13,3 C 82 % 990,6 hPa 0,0 l/m 0 min 0 min 102 W/m 38,6 km/h (5 Bft) 97,83 %
02.11.2019 14:48 14,6 C 13,9 C 13,3 C 82 % 990,5 hPa 0,0 l/m 0 min 0 min 80 W/m 29,0 km/h (5 Bft) 100,00 %
02.11.2019 14:50 14,6 C 13,9 C 13,3 C 82 % 990,6 hPa 0,0 l/m 0 min 0 min 61 W/m 29,0 km/h (5 Bft) 100,00 %
02.11.2019 14:52 14,6 C 13,9 C 12,8 C 82 % 990,5 hPa 0,0 l/m 0 min 0 min 51 W/m 29,0 km/h (5 Bft) 95,74 %
02.11.2019 14:54 14,6 C 13,9 C 12,8 C 82 % 990,5 hPa 0,0 l/m 0 min 0 min 48 W/m 25,7 km/h (4 Bft) 100,00 %
02.11.2019 14:56 14,5 C 13,9 C 12,8 C 83 % 990,5 hPa 0,0 l/m 0 min 0 min 73 W/m 16,1 km/h (3 Bft) 97,83 %
02.11.2019 14:58 14,5 C 13,9 C 12,8 C 83 % 990,4 hPa 0,0 l/m 0 min 0 min 74 W/m 29,0 km/h (5 Bft) 100,00 %
02.11.2019 15:00 14,5 C 13,9 C 12,8 C 83 % 990,3 hPa 0,0 l/m 0 min 0 min 74 W/m 25,7 km/h (4 Bft) 97,87 %
02.11.2019 15:02 14,5 C 13,9 C 13,3 C 82 % 990,2 hPa 0,0 l/m 0 min 0 min 76 W/m 32,2 km/h (5 Bft) 95,74 %
02.11.2019 15:04 14,4 C 14,4 C 13,3 C 82 % 990,3 hPa 0,0 l/m 0 min 0 min 104 W/m 22,5 km/h (4 Bft) 100,00 %
02.11.2019 15:06 14,4 C 15,0 C 13,3 C 82 % 990,1 hPa 0,0 l/m 2 min 0 min 170 W/m 29,0 km/h (5 Bft) 100,00 %
02.11.2019 15:08 14,4 C 14,4 C 13,3 C 82 % 990,1 hPa 0,0 l/m 2 min 0 min 147 W/m 41,8 km/h (6 Bft) 100,00 %
02.11.2019 15:10 14,4 C 14,4 C 13,3 C 81 % 990,1 hPa 0,0 l/m 0 min 0 min 110 W/m 38,6 km/h (5 Bft) 97,87 %
02.11.2019 15:12 14,4 C 14,4 C 13,3 C 81 % 990,2 hPa 0,0 l/m 0 min 0 min 115 W/m 35,4 km/h (5 Bft) 97,87 %
02.11.2019 15:14 14,4 C 14,4 C 13,3 C 80 % 990,1 hPa 0,0 l/m 2 min 0 min 151 W/m 29,0 km/h (5 Bft) 97,87 %
02.11.2019 15:16 14,5 C 15,0 C 13,3 C 80 % 990,1 hPa 0,0 l/m 2 min 0 min 164 W/m 22,5 km/h (4 Bft) 97,87 %
02.11.2019 15:18 14,5 C 15,0 C 13,3 C 80 % 990,0 hPa 0,0 l/m 2 min 0 min 161 W/m 29,0 km/h (5 Bft) 97,87 %
02.11.2019 15:20 14,5 C 14,4 C 13,3 C 80 % 989,9 hPa 0,0 l/m 2 min 0 min 120 W/m 35,4 km/h (5 Bft) 95,65 %
02.11.2019 15:22 14,5 C 14,4 C 13,3 C 80 % 990,0 hPa 0,0 l/m 0 min 0 min 105 W/m 32,2 km/h (5 Bft) 93,62 %
02.11.2019 15:24 14,5 C 14,4 C 13,3 C 80 % 989,9 hPa 0,0 l/m 0 min 0 min 108 W/m 25,7 km/h (4 Bft) 95,74 %
02.11.2019 15:26 14,5 C 14,4 C 13,3 C 80 % 990,0 hPa 0,0 l/m 2 min 0 min 114 W/m 25,7 km/h (4 Bft) 93,62 %
02.11.2019 15:28 14,5 C 14,4 C 13,3 C 80 % 989,9 hPa 0,0 l/m 2 min 0 min 129 W/m 25,7 km/h (4 Bft) 95,74 %
02.11.2019 15:30 14,5 C 14,4 C 13,3 C 80 % 990,0 hPa 0,0 l/m 2 min 0 min 117 W/m 22,5 km/h (4 Bft) 97,87 %
02.11.2019 15:32 14,5 C 13,9 C 12,8 C 80 % 989,9 hPa 0,0 l/m 0 min 0 min 88 W/m 29,0 km/h (5 Bft) 93,48 %
02.11.2019 15:34 14,5 C 13,9 C 12,8 C 80 % 990,0 hPa 0,0 l/m 0 min 0 min 84 W/m 29,0 km/h (5 Bft) 91,49 %
02.11.2019 15:36 14,4 C 13,9 C 12,8 C 80 % 989,9 hPa 0,0 l/m 0 min 0 min 84 W/m 35,4 km/h (5 Bft) 93,62 %
02.11.2019 15:38 14,4 C 13,9 C 13,3 C 80 % 989,8 hPa 0,0 l/m 0 min 0 min 86 W/m 22,5 km/h (4 Bft) 93,62 %
02.11.2019 15:40 14,4 C 13,9 C 12,8 C 80 % 989,9 hPa 0,0 l/m 0 min 0 min 88 W/m 19,3 km/h (3 Bft) 95,74 %
02.11.2019 15:42 14,4 C 13,9 C 12,8 C 80 % 989,9 hPa 0,0 l/m 0 min 0 min 77 W/m 19,3 km/h (3 Bft) 95,74 %
02.11.2019 15:44 14,4 C 13,9 C 12,8 C 80 % 989,9 hPa 0,0 l/m 0 min 0 min 72 W/m 29,0 km/h (5 Bft) 95,65 %
02.11.2019 15:46 14,4 C 13,9 C 12,8 C 80 % 989,8 hPa 0,0 l/m 0 min 0 min 66 W/m 35,4 km/h (5 Bft) 95,74 %
02.11.2019 15:48 14,3 C 13,9 C 12,8 C 80 % 989,8 hPa 0,0 l/m 0 min 0 min 62 W/m 38,6 km/h (5 Bft) 95,74 %
02.11.2019 15:50 14,3 C 13,9 C 12,8 C 79 % 989,8 hPa 0,0 l/m 0 min 0 min 56 W/m 32,2 km/h (5 Bft) 93,62 %
02.11.2019 15:52 14,3 C 13,9 C 12,8 C 79 % 989,8 hPa 0,0 l/m 0 min 0 min 53 W/m 32,2 km/h (5 Bft) 95,74 %
02.11.2019 15:54 14,3 C 13,9 C 12,8 C 79 % 989,7 hPa 0,0 l/m 0 min 0 min 53 W/m 22,5 km/h (4 Bft) 95,65 %
02.11.2019 15:56 14,3 C 13,9 C 12,8 C 79 % 989,7 hPa 0,0 l/m 0 min 0 min 59 W/m 19,3 km/h (3 Bft) 97,87 %
02.11.2019 15:58 14,3 C 13,9 C 12,8 C 79 % 989,6 hPa 0,0 l/m 0 min 0 min 65 W/m 16,1 km/h (3 Bft) 93,62 %
02.11.2019 16:00 14,3 C 13,9 C 12,8 C 79 % 989,6 hPa 0,0 l/m 0 min 0 min 69 W/m 22,5 km/h (4 Bft) 95,74 %
02.11.2019 16:02 14,3 C 13,9 C 12,8 C 79 % 989,6 hPa 0,0 l/m 0 min 0 min 69 W/m 16,1 km/h (3 Bft) 95,74 %
02.11.2019 16:04 14,3 C 13,9 C 12,8 C 79 % 989,6 hPa 0,0 l/m 0 min 0 min 64 W/m 16,1 km/h (3 Bft) 97,87 %
02.11.2019 16:06 14,3 C 13,9 C 12,8 C 79 % 989,5 hPa 0,0 l/m 0 min 0 min 57 W/m 25,7 km/h (4 Bft) 93,48 %
02.11.2019 16:08 14,3 C 13,9 C 12,8 C 79 % 989,5 hPa 0,0 l/m 0 min 0 min 48 W/m 16,1 km/h (3 Bft) 97,87 %
02.11.2019 16:10 14,3 C 13,3 C 12,8 C 79 % 989,4 hPa 0,0 l/m 0 min 0 min 40 W/m 16,1 km/h (3 Bft) 95,74 %
02.11.2019 16:12 14,3 C 13,3 C 12,8 C 79 % 989,4 hPa 0,0 l/m 0 min 0 min 37 W/m 22,5 km/h (4 Bft) 95,74 %
02.11.2019 16:14 14,3 C 13,3 C 12,8 C 79 % 989,5 hPa 0,0 l/m 0 min 0 min 39 W/m 19,3 km/h (3 Bft) 97,87 %
02.11.2019 16:16 14,3 C 13,3 C 12,8 C 79 % 989,6 hPa 0,0 l/m 0 min 0 min 41 W/m 25,7 km/h (4 Bft) 100,00 %
02.11.2019 16:18 14,3 C 13,3 C 12,8 C 79 % 989,6 hPa 0,0 l/m 0 min 0 min 39 W/m 19,3 km/h (3 Bft) 97,83 %
02.11.2019 16:20 14,3 C 13,3 C 12,8 C 80 % 989,6 hPa 0,0 l/m 0 min 0 min 34 W/m 19,3 km/h (3 Bft) 100,00 %
02.11.2019 16:22 14,2 C 13,3 C 12,8 C 80 % 989,6 hPa 0,0 l/m 0 min 0 min 30 W/m 22,5 km/h (4 Bft) 97,87 %
02.11.2019 16:24 14,2 C 13,3 C 12,8 C 80 % 989,7 hPa 0,0 l/m 0 min 0 min 32 W/m 19,3 km/h (3 Bft) 97,87 %
02.11.2019 16:26 14,1 C 13,3 C 12,8 C 80 % 989,6 hPa 0,0 l/m 0 min 0 min 38 W/m 25,7 km/h (4 Bft) 100,00 %
02.11.2019 16:28 14,1 C 13,3 C 12,8 C 80 % 989,6 hPa 0,0 l/m 2 min 0 min 46 W/m 22,5 km/h (4 Bft) 95,74 %
02.11.2019 16:30 14,1 C 13,3 C 12,8 C 79 % 989,5 hPa 0,0 l/m 2 min 0 min 53 W/m 29,0 km/h (5 Bft) 97,83 %
02.11.2019 16:32 14,1 C 13,3 C 12,8 C 79 % 989,5 hPa 0,0 l/m 2 min 0 min 44 W/m 22,5 km/h (4 Bft) 97,87 %
02.11.2019 16:34 14,1 C 13,3 C 12,8 C 79 % 989,5 hPa 0,0 l/m 0 min 0 min 29 W/m 22,5 km/h (4 Bft) 97,87 %
02.11.2019 16:36 14,1 C 13,3 C 12,8 C 79 % 989,5 hPa 0,0 l/m 0 min 0 min 25 W/m 22,5 km/h (4 Bft) 97,87 %
02.11.2019 16:38 14,0 C 13,3 C 12,8 C 79 % 989,6 hPa 0,0 l/m 0 min 0 min 23 W/m 16,1 km/h (3 Bft) 97,87 %
02.11.2019 16:40 14,0 C 13,3 C 12,2 C 79 % 989,5 hPa 0,0 l/m 0 min 0 min 23 W/m 22,5 km/h (4 Bft) 97,87 %
02.11.2019 16:42 14,0 C 13,3 C 12,2 C 79 % 989,5 hPa 0,0 l/m 0 min 0 min 22 W/m 22,5 km/h (4 Bft) 95,65 %
02.11.2019 16:44 14,0 C 13,3 C 12,2 C 79 % 989,6 hPa 0,0 l/m 2 min 0 min 21 W/m 19,3 km/h (3 Bft) 97,87 %
02.11.2019 16:46 13,9 C 12,8 C 12,2 C 79 % 989,5 hPa 0,0 l/m 2 min 0 min 20 W/m 19,3 km/h (3 Bft) 97,87 %
02.11.2019 16:48 13,9 C 12,8 C 12,2 C 79 % 989,4 hPa 0,0 l/m 0 min 0 min 18 W/m 22,5 km/h (4 Bft) 95,74 %
02.11.2019 16:50 13,9 C 12,8 C 12,2 C 79 % 989,4 hPa 0,0 l/m 0 min 0 min 16 W/m 16,1 km/h (3 Bft) 97,87 %
02.11.2019 16:52 13,9 C 12,8 C 12,2 C 79 % 989,5 hPa 0,0 l/m 0 min 0 min 14 W/m 12,9 km/h (3 Bft) 97,83 %
02.11.2019 16:54 13,9 C 12,8 C 12,2 C 79 % 989,4 hPa 0,0 l/m 0 min 0 min 12 W/m 22,5 km/h (4 Bft) 95,74 %
02.11.2019 16:56 13,8 C 12,8 C 12,2 C 79 % 989,4 hPa 0,0 l/m 0 min 0 min 11 W/m 19,3 km/h (3 Bft) 97,87 %
02.11.2019 16:58 13,8 C 12,8 C 12,2 C 79 % 989,4 hPa 0,0 l/m 0 min 0 min 9 W/m 19,3 km/h (3 Bft) 97,87 %
02.11.2019 17:00 13,8 C 12,8 C 11,7 C 80 % 989,4 hPa 0,0 l/m 0 min 0 min 7 W/m 19,3 km/h (3 Bft) 97,87 %
02.11.2019 17:02 13,8 C 12,8 C 11,7 C 80 % 989,4 hPa 0,0 l/m 0 min 0 min 6 W/m 22,5 km/h (4 Bft) 97,87 %
02.11.2019 17:04 13,7 C 12,8 C 11,7 C 80 % 989,4 hPa 0,0 l/m 0 min 0 min 5 W/m 25,7 km/h (4 Bft) 97,83 %
02.11.2019 17:06 13,7 C 12,8 C 11,7 C 80 % 989,4 hPa 0,0 l/m 0 min 0 min 5 W/m 29,0 km/h (5 Bft) 97,87 %
02.11.2019 17:08 13,7 C 12,8 C 11,7 C 80 % 989,3 hPa 0,0 l/m 0 min 0 min 0 W/m 16,1 km/h (3 Bft) 97,87 %
02.11.2019 17:10 13,6 C 12,8 C 11,7 C 80 % 989,3 hPa 0,0 l/m 0 min 0 min 0 W/m 19,3 km/h (3 Bft) 97,87 %
02.11.2019 17:12 13,6 C 12,2 C 11,7 C 80 % 989,3 hPa 0,0 l/m 0 min 0 min 0 W/m 25,7 km/h (4 Bft) 97,87 %
02.11.2019 17:14 13,6 C 12,2 C 11,7 C 80 % 989,5 hPa 0,0 l/m 0 min 0 min 0 W/m 16,1 km/h (3 Bft) 95,74 %
02.11.2019 17:16 13,6 C 12,2 C 11,7 C 80 % 989,5 hPa 0,0 l/m 0 min 0 min 0 W/m 19,3 km/h (3 Bft) 97,83 %
02.11.2019 17:18 13,5 C 12,2 C 11,7 C 80 % 989,5 hPa 0,0 l/m 0 min 0 min 0 W/m 12,9 km/h (3 Bft) 97,87 %
02.11.2019 17:20 13,4 C 12,2 C 11,7 C 80 % 989,5 hPa 0,0 l/m 0 min 0 min 0 W/m 22,5 km/h (4 Bft) 97,87 %
02.11.2019 17:22 13,4 C 12,2 C 11,7 C 80 % 989,5 hPa 0,0 l/m 0 min 0 min 0 W/m 16,1 km/h (3 Bft) 97,87 %
02.11.2019 17:24 13,4 C 12,2 C 11,7 C 80 % 989,5 hPa 0,0 l/m 0 min 0 min 0 W/m 22,5 km/h (4 Bft) 100,00 %
02.11.2019 17:26 13,4 C 12,2 C 11,7 C 80 % 989,4 hPa 0,0 l/m 0 min 0 min 0 W/m 19,3 km/h (3 Bft) 100,00 %
02.11.2019 17:28 13,4 C 12,2 C 11,7 C 80 % 989,5 hPa 0,0 l/m 0 min 0 min 0 W/m 19,3 km/h (3 Bft) 97,83 %
02.11.2019 17:30 13,3 C 12,2 C 11,7 C 80 % 989,5 hPa 0,0 l/m 0 min 0 min 0 W/m 29,0 km/h (5 Bft) 97,87 %
02.11.2019 17:32 13,3 C 12,2 C 11,7 C 80 % 989,5 hPa 0,0 l/m 0 min 0 min 0 W/m 19,3 km/h (3 Bft) 100,00 %
02.11.2019 17:34 13,3 C 12,2 C 11,7 C 80 % 989,5 hPa 0,0 l/m 0 min 0 min 0 W/m 22,5 km/h (4 Bft) 97,87 %
02.11.2019 17:36 13,3 C 12,2 C 11,7 C 80 % 989,5 hPa 0,0 l/m 0 min 0 min 0 W/m 12,9 km/h (3 Bft) 97,87 %
02.11.2019 17:38 13,3 C 12,2 C 11,7 C 80 % 989,5 hPa 0,0 l/m 0 min 0 min 0 W/m 12,9 km/h (3 Bft) 97,87 %
02.11.2019 17:40 13,2 C 12,2 C 11,7 C 81 % 989,5 hPa 0,0 l/m 0 min 0 min 0 W/m 19,3 km/h (3 Bft) 97,83 %
02.11.2019 17:42 13,2 C 12,2 C 11,7 C 81 % 989,6 hPa 0,0 l/m 0 min 0 min 0 W/m 16,1 km/h (3 Bft) 100,00 %
02.11.2019 17:44 13,2 C 12,2 C 11,7 C 81 % 989,6 hPa 0,0 l/m 0 min 0 min 0 W/m 19,3 km/h (3 Bft) 100,00 %
02.11.2019 17:46 13,2 C 12,2 C 11,7 C 81 % 989,6 hPa 0,0 l/m 0 min 0 min 0 W/m 12,9 km/h (3 Bft) 97,87 %
02.11.2019 17:48 13,2 C 12,2 C 11,7 C 80 % 989,6 hPa 0,0 l/m 0 min 0 min 0 W/m 12,9 km/h (3 Bft) 97,87 %
02.11.2019 17:50 13,2 C 12,2 C 11,7 C 80 % 989,6 hPa 0,0 l/m 0 min 0 min 0 W/m 16,1 km/h (3 Bft) 97,87 %
02.11.2019 17:52 13,2 C 12,2 C 11,7 C 80 % 989,5 hPa 0,0 l/m 0 min 0 min 0 W/m 22,5 km/h (4 Bft) 97,83 %
02.11.2019 17:54 13,1 C 12,2 C 11,7 C 80 % 989,6 hPa 0,0 l/m 0 min 0 min 0 W/m 25,7 km/h (4 Bft) 97,87 %
02.11.2019 17:56 13,1 C 12,2 C 11,7 C 80 % 989,6 hPa 0,0 l/m 0 min 0 min 0 W/m 22,5 km/h (4 Bft) 93,62 %
02.11.2019 17:58 13,1 C 12,2 C 11,7 C 80 % 989,6 hPa 0,0 l/m 0 min 0 min 0 W/m 22,5 km/h (4 Bft) 97,87 %
02.11.2019 18:00 13,1 C 12,2 C 11,7 C 80 % 989,5 hPa 0,0 l/m 0 min 0 min 0 W/m 16,1 km/h (3 Bft) 97,87 %
02.11.2019 18:02 13,1 C 12,2 C 11,7 C 80 % 989,5 hPa 0,0 l/m 0 min 0 min 0 W/m 16,1 km/h (3 Bft) 95,65 %
02.11.2019 18:04 13,1 C 12,2 C 11,7 C 80 % 989,5 hPa 0,0 l/m 0 min 0 min 0 W/m 19,3 km/h (3 Bft) 97,87 %
02.11.2019 18:08 13,1 C 12,2 C 11,7 C 80 % 989,5 hPa 0,0 l/m 0 min 0 min 0 W/m 19,3 km/h (3 Bft) 97,87 %
02.11.2019 18:10 13,1 C 12,2 C 11,7 C 80 % 989,5 hPa 0,0 l/m 0 min 0 min 0 W/m 16,1 km/h (3 Bft) 97,87 %
02.11.2019 18:12 13,0 C 12,2 C 11,7 C 79 % 989,5 hPa 0,0 l/m 0 min 0 min 0 W/m 32,2 km/h (5 Bft) 95,74 %
02.11.2019 18:14 13,0 C 12,2 C 11,7 C 79 % 989,6 hPa 0,0 l/m 0 min 0 min 0 W/m 29,0 km/h (5 Bft) 97,83 %
02.11.2019 18:16 13,1 C 12,2 C 11,7 C 79 % 989,6 hPa 0,0 l/m 0 min 0 min 0 W/m 16,1 km/h (3 Bft) 97,87 %
02.11.2019 18:18 13,1 C 12,2 C 11,7 C 79 % 989,6 hPa 0,0 l/m 0 min 0 min 0 W/m 16,1 km/h (3 Bft) 97,87 %
02.11.2019 18:20 13,0 C 12,2 C 11,7 C 79 % 989,7 hPa 0,0 l/m 0 min 0 min 0 W/m 22,5 km/h (4 Bft) 97,87 %
02.11.2019 18:22 13,1 C 12,2 C 11,7 C 79 % 989,6 hPa 0,0 l/m 0 min 0 min 0 W/m 12,9 km/h (3 Bft) 95,74 %
02.11.2019 18:24 13,1 C 12,2 C 11,7 C 79 % 989,6 hPa 0,0 l/m 0 min 0 min 0 W/m 22,5 km/h (4 Bft) 97,87 %
02.11.2019 18:26 13,1 C 12,2 C 11,7 C 79 % 989,7 hPa 0,0 l/m 0 min 0 min 0 W/m 22,5 km/h (4 Bft) 97,83 %
02.11.2019 18:28 13,1 C 12,2 C 11,7 C 79 % 989,7 hPa 0,0 l/m 0 min 0 min 0 W/m 25,7 km/h (4 Bft) 97,87 %
02.11.2019 18:30 13,0 C 12,2 C 11,7 C 79 % 989,7 hPa 0,0 l/m 0 min 0 min 0 W/m 22,5 km/h (4 Bft) 95,74 %
02.11.2019 18:32 13,0 C 12,2 C 11,7 C 78 % 989,6 hPa 0,0 l/m 0 min 0 min 0 W/m 19,3 km/h (3 Bft) 97,87 %
02.11.2019 18:34 13,0 C 12,2 C 11,7 C 78 % 989,6 hPa 0,0 l/m 0 min 0 min 0 W/m 25,7 km/h (4 Bft) 97,87 %
02.11.2019 18:36 13,0 C 12,2 C 11,7 C 78 % 989,6 hPa 0,0 l/m 0 min 0 min 0 W/m 25,7 km/h (4 Bft) 100,00 %
02.11.2019 18:38 13,0 C 12,2 C 11,7 C 78 % 989,7 hPa 0,0 l/m 0 min 0 min 0 W/m 19,3 km/h (3 Bft) 97,83 %
02.11.2019 18:40 13,0 C 12,2 C 11,7 C 78 % 989,7 hPa 0,0 l/m 0 min 0 min 0 W/m 12,9 km/h (3 Bft) 97,87 %
02.11.2019 18:42 13,0 C 12,2 C 11,7 C 78 % 989,7 hPa 0,0 l/m 0 min 0 min 0 W/m 25,7 km/h (4 Bft) 93,62 %
02.11.2019 18:44 13,0 C 12,2 C 11,7 C 78 % 989,8 hPa 0,0 l/m 0 min 0 min 0 W/m 25,7 km/h (4 Bft) 97,87 %
02.11.2019 18:46 13,0 C 12,2 C 11,7 C 78 % 989,8 hPa 0,0 l/m 0 min 0 min 0 W/m 12,9 km/h (3 Bft) 97,87 %
02.11.2019 18:48 12,9 C 12,2 C 11,7 C 79 % 989,7 hPa 0,0 l/m 0 min 0 min 0 W/m 22,5 km/h (4 Bft) 97,87 %
02.11.2019 18:50 12,9 C 12,2 C 11,1 C 79 % 989,7 hPa 0,0 l/m 0 min 0 min 0 W/m 22,5 km/h (4 Bft) 95,65 %
02.11.2019 18:52 12,9 C 12,2 C 11,7 C 78 % 989,7 hPa 0,0 l/m 0 min 0 min 0 W/m 29,0 km/h (5 Bft) 97,87 %
02.11.2019 18:54 12,9 C 12,2 C 11,7 C 78 % 989,6 hPa 0,0 l/m 0 min 0 min 0 W/m 22,5 km/h (4 Bft) 97,87 %
02.11.2019 18:56 12,9 C 12,2 C 11,7 C 78 % 989,7 hPa 0,0 l/m 0 min 0 min 0 W/m 25,7 km/h (4 Bft) 97,87 %
02.11.2019 18:58 12,9 C 12,2 C 11,7 C 78 % 989,7 hPa 0,0 l/m 0 min 0 min 0 W/m 19,3 km/h (3 Bft) 97,87 %
02.11.2019 19:00 12,9 C 12,2 C 11,7 C 78 % 989,7 hPa 0,0 l/m 0 min 0 min 0 W/m 25,7 km/h (4 Bft) 97,83 %
02.11.2019 19:02 12,8 C 12,2 C 11,7 C 78 % 989,6 hPa 0,0 l/m 0 min 0 min 0 W/m 35,4 km/h (5 Bft) 97,87 %
02.11.2019 19:04 12,9 C 12,2 C 11,7 C 78 % 989,7 hPa 0,0 l/m 0 min 0 min 0 W/m 16,1 km/h (3 Bft) 97,87 %
02.11.2019 19:06 12,8 C 12,2 C 11,7 C 78 % 989,7 hPa 0,0 l/m 0 min 0 min 0 W/m 22,5 km/h (4 Bft) 97,87 %
02.11.2019 19:08 12,8 C 12,2 C 11,7 C 78 % 989,7 hPa 0,0 l/m 0 min 0 min 0 W/m 32,2 km/h (5 Bft) 95,74 %
02.11.2019 19:10 12,8 C 12,2 C 11,7 C 78 % 989,7 hPa 0,0 l/m 0 min 0 min 0 W/m 29,0 km/h (5 Bft) 97,87 %
02.11.2019 19:12 12,8 C 12,2 C 11,7 C 78 % 989,6 hPa 0,0 l/m 0 min 0 min 0 W/m 35,4 km/h (5 Bft) 93,48 %
02.11.2019 19:14 12,8 C 12,2 C 11,7 C 78 % 989,6 hPa 0,0 l/m 0 min 0 min 0 W/m 32,2 km/h (5 Bft) 97,87 %
02.11.2019 19:16 12,8 C 12,2 C 11,7 C 78 % 989,6 hPa 0,0 l/m 0 min 0 min 0 W/m 25,7 km/h (4 Bft) 97,87 %
02.11.2019 19:18 12,8 C 12,2 C 11,7 C 78 % 989,6 hPa 0,0 l/m 0 min 0 min 0 W/m 35,4 km/h (5 Bft) 95,74 %
02.11.2019 19:20 12,8 C 11,7 C 11,1 C 78 % 989,6 hPa 0,0 l/m 0 min 0 min 0 W/m 16,1 km/h (3 Bft) 97,87 %
02.11.2019 19:22 12,8 C 11,7 C 11,1 C 78 % 989,6 hPa 0,0 l/m 0 min 0 min 0 W/m 16,1 km/h (3 Bft) 97,87 %
02.11.2019 19:24 12,8 C 11,7 C 11,1 C 78 % 989,6 hPa 0,0 l/m 0 min 0 min 0 W/m 19,3 km/h (3 Bft) 97,83 %
02.11.2019 19:26 12,8 C 11,7 C 11,1 C 78 % 989,5 hPa 0,0 l/m 0 min 0 min 0 W/m 25,7 km/h (4 Bft) 97,87 %
02.11.2019 19:28 12,8 C 11,7 C 11,1 C 78 % 989,6 hPa 0,0 l/m 0 min 0 min 0 W/m 25,7 km/h (4 Bft) 91,49 %
02.11.2019 19:30 12,7 C 12,2 C 11,7 C 78 % 989,6 hPa 0,0 l/m 0 min 0 min 0 W/m 35,4 km/h (5 Bft) 97,87 %
02.11.2019 19:32 12,7 C 11,7 C 11,1 C 78 % 989,6 hPa 0,0 l/m 0 min 0 min 0 W/m 19,3 km/h (3 Bft) 95,74 %
02.11.2019 19:34 12,7 C 11,7 C 11,1 C 78 % 989,6 hPa 0,0 l/m 0 min 0 min 0 W/m 19,3 km/h (3 Bft) 93,62 %
02.11.2019 19:36 12,7 C 11,7 C 11,1 C 78 % 989,5 hPa 0,0 l/m 0 min 0 min 0 W/m 22,5 km/h (4 Bft) 93,48 %
02.11.2019 19:38 12,7 C 11,7 C 11,1 C 78 % 989,5 hPa 0,2 l/m 0 min 0 min 0 W/m 32,2 km/h (5 Bft) 95,74 %
02.11.2019 19:40 12,7 C 11,7 C 11,1 C 78 % 989,5 hPa 0,0 l/m 0 min 0 min 0 W/m 19,3 km/h (3 Bft) 97,87 %
02.11.2019 19:42 12,7 C 11,7 C 11,1 C 78 % 989,5 hPa 0,0 l/m 0 min 0 min 0 W/m 22,5 km/h (4 Bft) 95,74 %
02.11.2019 19:44 12,6 C 11,7 C 11,1 C 78 % 989,4 hPa 0,0 l/m 0 min 0 min 0 W/m 25,7 km/h (4 Bft) 97,87 %
02.11.2019 19:46 12,6 C 11,7 C 11,1 C 78 % 989,4 hPa 0,0 l/m 0 min 0 min 0 W/m 19,3 km/h (3 Bft) 97,87 %
02.11.2019 19:48 12,6 C 11,7 C 11,1 C 78 % 989,4 hPa 0,0 l/m 0 min 0 min 0 W/m 19,3 km/h (3 Bft) 97,83 %
02.11.2019 19:50 12,6 C 11,7 C 11,1 C 78 % 989,4 hPa 0,0 l/m 0 min 0 min 0 W/m 25,7 km/h (4 Bft) 97,87 %
02.11.2019 19:52 12,6 C 11,7 C 11,1 C 78 % 989,4 hPa 0,0 l/m 0 min 0 min 0 W/m 16,1 km/h (3 Bft) 95,74 %
02.11.2019 19:53 12,6 C 11,7 C 11,1 C 78 % 989,4 hPa 0,0 l/m 0 min 0 min 0 W/m 19,3 km/h (3 Bft) 97,87 %
02.11.2019 19:56 12,6 C 11,7 C 11,1 C 78 % 989,4 hPa 0,0 l/m 0 min 0 min 0 W/m 19,3 km/h (3 Bft) 97,87 %
02.11.2019 19:58 12,6 C 11,7 C 11,1 C 78 % 989,4 hPa 0,0 l/m 0 min 0 min 0 W/m 16,1 km/h (3 Bft) 97,87 %
02.11.2019 20:00 12,5 C 11,7 C 11,1 C 79 % 989,3 hPa 0,0 l/m 0 min 0 min 0 W/m 22,5 km/h (4 Bft) 94,00 %
02.11.2019 20:02 12,5 C 11,7 C 11,1 C 79 % 989,4 hPa 0,0 l/m 0 min 0 min 0 W/m 25,7 km/h (4 Bft) 87,50 %
02.11.2019 20:04 12,5 C 11,7 C 11,1 C 79 % 989,3 hPa 0,0 l/m 0 min 0 min 0 W/m 16,1 km/h (3 Bft) 97,87 %
02.11.2019 20:06 12,5 C 11,7 C 11,1 C 79 % 989,3 hPa 0,0 l/m 0 min 0 min 0 W/m 19,3 km/h (3 Bft) 97,67 %
02.11.2019 20:08 12,4 C 11,7 C 11,1 C 79 % 989,3 hPa 0,0 l/m 0 min 0 min 0 W/m 19,3 km/h (3 Bft) 97,87 %
02.11.2019 20:10 12,4 C 11,7 C 11,1 C 79 % 989,3 hPa 0,0 l/m 0 min 0 min 0 W/m 19,3 km/h (3 Bft) 97,96 %
02.11.2019 20:12 12,4 C 11,7 C 11,1 C 79 % 989,2 hPa 0,0 l/m 0 min 0 min 0 W/m 19,3 km/h (3 Bft) 97,92 %
02.11.2019 20:14 12,4 C 11,7 C 11,1 C 79 % 989,2 hPa 0,0 l/m 0 min 0 min 0 W/m 32,2 km/h (5 Bft) 97,87 %
02.11.2019 20:16 12,4 C 11,7 C 11,1 C 79 % 989,3 hPa 0,0 l/m 0 min 0 min 0 W/m 19,3 km/h (3 Bft) 100,00 %
02.11.2019 20:18 12,4 C 11,7 C 11,1 C 79 % 989,2 hPa 0,0 l/m 0 min 0 min 0 W/m 22,5 km/h (4 Bft) 100,00 %
02.11.2019 20:20 12,4 C 11,7 C 11,1 C 79 % 989,3 hPa 0,0 l/m 0 min 0 min 0 W/m 22,5 km/h (4 Bft) 95,83 %
02.11.2019 20:22 12,4 C 11,7 C 11,1 C 79 % 989,3 hPa 0,0 l/m 0 min 0 min 0 W/m 29,0 km/h (5 Bft) 97,83 %
02.11.2019 20:24 12,4 C 11,7 C 11,1 C 79 % 989,3 hPa 0,0 l/m 0 min 0 min 0 W/m 22,5 km/h (4 Bft) 100,00 %
02.11.2019 20:26 12,4 C 11,7 C 11,1 C 79 % 989,3 hPa 0,0 l/m 0 min 0 min 0 W/m 35,4 km/h (5 Bft) 100,00 %
02.11.2019 20:28 12,4 C 11,7 C 11,1 C 79 % 989,3 hPa 0,0 l/m 0 min 0 min 0 W/m 22,5 km/h (4 Bft) 100,00 %
02.11.2019 20:30 12,4 C 11,7 C 11,1 C 79 % 989,3 hPa 0,0 l/m 0 min 0 min 0 W/m 19,3 km/h (3 Bft) 97,87 %
02.11.2019 20:32 12,4 C 11,7 C 11,1 C 79 % 989,2 hPa 0,0 l/m 0 min 0 min 0 W/m 22,5 km/h (4 Bft) 100,00 %
02.11.2019 20:34 12,4 C 11,7 C 11,1 C 79 % 989,2 hPa 0,0 l/m 0 min 0 min 0 W/m 25,7 km/h (4 Bft) 97,96 %
02.11.2019 20:36 12,4 C 11,7 C 11,1 C 80 % 989,2 hPa 0,0 l/m 0 min 0 min 0 W/m 25,7 km/h (4 Bft) 97,87 %
02.11.2019 20:38 12,4 C 11,7 C 11,1 C 80 % 989,2 hPa 0,0 l/m 0 min 0 min 0 W/m 25,7 km/h (4 Bft) 97,87 %
02.11.2019 20:40 12,4 C 11,7 C 11,1 C 80 % 989,2 hPa 0,0 l/m 0 min 0 min 0 W/m 16,1 km/h (3 Bft) 97,92 %
02.11.2019 20:42 12,4 C 11,7 C 10,6 C 80 % 989,3 hPa 0,0 l/m 0 min 0 min 0 W/m 16,1 km/h (3 Bft) 97,87 %
02.11.2019 20:44 12,4 C 11,7 C 11,1 C 80 % 989,2 hPa 0,0 l/m 0 min 0 min 0 W/m 25,7 km/h (4 Bft) 97,67 %
02.11.2019 20:46 12,3 C 11,7 C 11,1 C 80 % 989,2 hPa 0,0 l/m 0 min 0 min 0 W/m 38,6 km/h (5 Bft) 97,96 %
02.11.2019 20:48 12,4 C 11,7 C 11,1 C 80 % 989,2 hPa 0,0 l/m 0 min 0 min 0 W/m 22,5 km/h (4 Bft) 95,83 %
02.11.2019 20:50 12,3 C 11,7 C 11,1 C 80 % 989,2 hPa 0,0 l/m 0 min 0 min 0 W/m 29,0 km/h (5 Bft) 97,87 %
02.11.2019 20:52 12,3 C 11,7 C 11,1 C 80 % 989,2 hPa 0,0 l/m 0 min 0 min 0 W/m 22,5 km/h (4 Bft) 97,67 %
02.11.2019 20:54 12,3 C 11,7 C 11,1 C 80 % 989,2 hPa 0,0 l/m 0 min 0 min 0 W/m 25,7 km/h (4 Bft) 98,00 %
02.11.2019 20:56 12,3 C 11,7 C 11,1 C 80 % 989,1 hPa 0,0 l/m 0 min 0 min 0 W/m 19,3 km/h (3 Bft) 97,83 %
02.11.2019 20:58 12,3 C 11,7 C 11,1 C 80 % 989,1 hPa 0,0 l/m 0 min 0 min 0 W/m 19,3 km/h (3 Bft) 97,92 %
02.11.2019 21:00 12,3 C 11,7 C 11,1 C 80 % 989,1 hPa 0,0 l/m 0 min 0 min 0 W/m 22,5 km/h (4 Bft) 97,87 %
02.11.2019 21:02 12,3 C 11,7 C 11,1 C 80 % 989,1 hPa 0,0 l/m 0 min 0 min 0 W/m 22,5 km/h (4 Bft) 97,87 %
02.11.2019 21:04 12,3 C 11,7 C 11,1 C 80 % 989,1 hPa 0,0 l/m 0 min 0 min 0 W/m 22,5 km/h (4 Bft) 97,67 %
02.11.2019 21:06 12,3 C 11,7 C 11,1 C 79 % 989,1 hPa 0,0 l/m 0 min 0 min 0 W/m 29,0 km/h (5 Bft) 95,74 %
02.11.2019 21:08 12,3 C 11,7 C 11,1 C 79 % 989,1 hPa 0,0 l/m 0 min 0 min 0 W/m 35,4 km/h (5 Bft) 97,96 %
02.11.2019 21:10 12,3 C 11,7 C 11,1 C 79 % 989,0 hPa 0,0 l/m 0 min 0 min 0 W/m 22,5 km/h (4 Bft) 97,92 %
02.11.2019 21:12 12,3 C 11,7 C 11,1 C 79 % 989,1 hPa 0,0 l/m 0 min 0 min 0 W/m 29,0 km/h (5 Bft) 97,87 %
02.11.2019 21:14 12,3 C 11,7 C 11,1 C 79 % 989,1 hPa 0,0 l/m 0 min 0 min 0 W/m 22,5 km/h (4 Bft) 97,87 %
02.11.2019 21:16 12,3 C 11,7 C 11,1 C 79 % 989,1 hPa 0,0 l/m 0 min 0 min 0 W/m 22,5 km/h (4 Bft) 97,67 %
02.11.2019 21:18 12,3 C 11,7 C 11,1 C 79 % 989,1 hPa 0,0 l/m 0 min 0 min 0 W/m 35,4 km/h (5 Bft) 100,00 %
02.11.2019 21:20 12,3 C 11,7 C 11,1 C 79 % 989,1 hPa 0,0 l/m 0 min 0 min 0 W/m 29,0 km/h (5 Bft) 100,00 %
02.11.2019 21:22 12,3 C 11,7 C 11,1 C 79 % 989,1 hPa 0,0 l/m 0 min 0 min 0 W/m 25,7 km/h (4 Bft) 97,83 %
02.11.2019 21:24 12,3 C 11,7 C 11,1 C 79 % 989,1 hPa 0,0 l/m 0 min 0 min 0 W/m 22,5 km/h (4 Bft) 100,00 %
02.11.2019 21:26 12,3 C 11,7 C 11,1 C 78 % 989,1 hPa 0,0 l/m 0 min 0 min 0 W/m 22,5 km/h (4 Bft) 100,00 %
02.11.2019 21:28 12,3 C 11,7 C 11,1 C 78 % 989,0 hPa 0,0 l/m 0 min 0 min 0 W/m 25,7 km/h (4 Bft) 100,00 %
02.11.2019 21:30 12,3 C 11,7 C 11,1 C 78 % 989,0 hPa 0,0 l/m 0 min 0 min 0 W/m 19,3 km/h (3 Bft) 100,00 %
02.11.2019 21:32 12,3 C 11,7 C 11,1 C 78 % 988,9 hPa 0,0 l/m 0 min 0 min 0 W/m 29,0 km/h (5 Bft) 95,24 %
02.11.2019 21:34 12,3 C 11,7 C 11,1 C 78 % 988,9 hPa 0,0 l/m 0 min 0 min 0 W/m 19,3 km/h (3 Bft) 100,00 %
02.11.2019 21:36 12,3 C 11,7 C 11,1 C 78 % 989,0 hPa 0,0 l/m 0 min 0 min 0 W/m 19,3 km/h (3 Bft) 100,00 %
02.11.2019 21:38 12,3 C 11,7 C 11,1 C 78 % 989,0 hPa 0,0 l/m 0 min 0 min 0 W/m 19,3 km/h (3 Bft) 100,00 %
02.11.2019 21:40 12,3 C 11,7 C 11,1 C 78 % 989,1 hPa 0,0 l/m 0 min 0 min 0 W/m 22,5 km/h (4 Bft) 100,00 %
02.11.2019 21:42 12,3 C 11,7 C 11,1 C 78 % 989,1 hPa 0,0 l/m 0 min 0 min 0 W/m 22,5 km/h (4 Bft) 100,00 %
02.11.2019 21:44 12,3 C 11,7 C 11,1 C 78 % 989,2 hPa 0,0 l/m 0 min 0 min 0 W/m 29,0 km/h (5 Bft) 100,00 %
02.11.2019 21:46 12,3 C 11,7 C 11,1 C 78 % 989,2 hPa 0,0 l/m 0 min 0 min 0 W/m 29,0 km/h (5 Bft) 100,00 %
02.11.2019 21:48 12,2 C 11,7 C 11,1 C 78 % 989,2 hPa 0,0 l/m 0 min 0 min 0 W/m 29,0 km/h (5 Bft) 100,00 %
02.11.2019 21:50 12,2 C 11,7 C 11,1 C 78 % 989,2 hPa 0,0 l/m 0 min 0 min 0 W/m 16,1 km/h (3 Bft) 100,00 %
02.11.2019 21:52 12,2 C 11,7 C 11,1 C 78 % 989,2 hPa 0,0 l/m 0 min 0 min 0 W/m 22,5 km/h (4 Bft) 100,00 %
02.11.2019 21:54 12,2 C 11,7 C 11,1 C 78 % 989,2 hPa 0,0 l/m 0 min 0 min 0 W/m 16,1 km/h (3 Bft) 100,00 %
02.11.2019 21:56 12,2 C 11,7 C 11,1 C 78 % 989,0 hPa 0,0 l/m 0 min 0 min 0 W/m 19,3 km/h (3 Bft) 100,00 %
02.11.2019 21:58 12,2 C 11,7 C 11,1 C 78 % 988,8 hPa 0,0 l/m 0 min 0 min 0 W/m 22,5 km/h (4 Bft) 100,00 %
02.11.2019 22:00 12,2 C 11,7 C 10,6 C 78 % 988,9 hPa 0,0 l/m 0 min 0 min 0 W/m 22,5 km/h (4 Bft) 100,00 %
02.11.2019 22:02 12,2 C 11,7 C 10,6 C 78 % 988,8 hPa 0,0 l/m 0 min 0 min 0 W/m 25,7 km/h (4 Bft) 100,00 %
02.11.2019 22:04 12,2 C 11,7 C 10,6 C 78 % 988,9 hPa 0,0 l/m 0 min 0 min 0 W/m 19,3 km/h (3 Bft) 97,92 %
02.11.2019 22:06 12,2 C 11,1 C 10,6 C 78 % 989,1 hPa 0,0 l/m 0 min 0 min 0 W/m 19,3 km/h (3 Bft) 97,87 %
02.11.2019 22:08 12,2 C 11,1 C 10,6 C 78 % 989,0 hPa 0,0 l/m 0 min 0 min 0 W/m 25,7 km/h (4 Bft) 100,00 %
02.11.2019 22:10 12,2 C 11,1 C 10,6 C 78 % 989,2 hPa 0,0 l/m 0 min 0 min 0 W/m 19,3 km/h (3 Bft) 97,87 %
02.11.2019 22:12 12,2 C 11,1 C 10,6 C 79 % 989,1 hPa 0,0 l/m 0 min 0 min 0 W/m 16,1 km/h (3 Bft) 95,74 %
02.11.2019 22:14 12,2 C 11,1 C 10,6 C 79 % 989,2 hPa 0,0 l/m 0 min 0 min 0 W/m 16,1 km/h (3 Bft) 97,87 %
02.11.2019 22:16 12,2 C 11,1 C 10,6 C 79 % 989,1 hPa 0,0 l/m 0 min 0 min 0 W/m 19,3 km/h (3 Bft) 97,67 %
02.11.2019 22:18 12,2 C 11,1 C 10,6 C 79 % 989,1 hPa 0,0 l/m 0 min 0 min 0 W/m 16,1 km/h (3 Bft) 97,96 %
02.11.2019 22:20 12,2 C 11,1 C 10,6 C 79 % 989,1 hPa 0,0 l/m 0 min 0 min 0 W/m 12,9 km/h (3 Bft) 95,74 %
02.11.2019 22:22 12,1 C 11,1 C 10,6 C 79 % 989,0 hPa 0,0 l/m 0 min 0 min 0 W/m 19,3 km/h (3 Bft) 95,83 %
02.11.2019 22:24 12,1 C 11,1 C 10,6 C 79 % 989,1 hPa 0,0 l/m 0 min 0 min 0 W/m 25,7 km/h (4 Bft) 95,74 %
02.11.2019 22:26 12,1 C 11,1 C 10,6 C 79 % 989,1 hPa 0,0 l/m 0 min 0 min 0 W/m 16,1 km/h (3 Bft) 95,35 %
02.11.2019 22:28 12,1 C 11,1 C 10,6 C 79 % 989,1 hPa 0,0 l/m 0 min 0 min 0 W/m 16,1 km/h (3 Bft) 96,00 %
02.11.2019 22:30 12,1 C 11,1 C 10,6 C 79 % 989,0 hPa 0,0 l/m 0 min 0 min 0 W/m 19,3 km/h (3 Bft) 95,83 %
02.11.2019 22:32 12,1 C 11,1 C 10,6 C 79 % 988,9 hPa 0,0 l/m 0 min 0 min 0 W/m 22,5 km/h (4 Bft) 95,65 %
02.11.2019 22:34 12,1 C 11,1 C 10,6 C 79 % 988,8 hPa 0,0 l/m 0 min 0 min 0 W/m 16,1 km/h (3 Bft) 95,35 %
02.11.2019 22:36 12,1 C 11,1 C 10,6 C 79 % 989,0 hPa 0,0 l/m 0 min 0 min 0 W/m 25,7 km/h (4 Bft) 96,00 %
02.11.2019 22:38 12,1 C 11,1 C 10,6 C 79 % 989,0 hPa 0,0 l/m 0 min 0 min 0 W/m 16,1 km/h (3 Bft) 95,74 %
02.11.2019 22:40 12,1 C 11,1 C 10,6 C 79 % 989,1 hPa 0,0 l/m 0 min 0 min 0 W/m 22,5 km/h (4 Bft) 95,74 %
02.11.2019 22:42 12,1 C 11,1 C 10,6 C 79 % 989,0 hPa 0,0 l/m 0 min 0 min 0 W/m 12,9 km/h (3 Bft) 93,62 %
02.11.2019 22:44 12,1 C 11,1 C 10,6 C 79 % 989,0 hPa 0,0 l/m 0 min 0 min 0 W/m 12,9 km/h (3 Bft) 95,74 %
02.11.2019 22:46 12,1 C 11,1 C 10,6 C 79 % 989,0 hPa 0,0 l/m 0 min 0 min 0 W/m 16,1 km/h (3 Bft) 95,35 %
02.11.2019 22:48 12,1 C 11,1 C 10,6 C 79 % 989,0 hPa 0,0 l/m 0 min 0 min 0 W/m 12,9 km/h (3 Bft) 94,00 %
02.11.2019 22:50 12,0 C 11,1 C 10,6 C 79 % 989,0 hPa 0,0 l/m 0 min 0 min 0 W/m 22,5 km/h (4 Bft) 93,75 %
02.11.2019 22:52 12,0 C 11,1 C 10,6 C 79 % 989,0 hPa 0,0 l/m 0 min 0 min 0 W/m 22,5 km/h (4 Bft) 95,74 %
02.11.2019 22:54 12,0 C 11,1 C 10,6 C 79 % 988,9 hPa 0,0 l/m 0 min 0 min 0 W/m 16,1 km/h (3 Bft) 97,62 %
02.11.2019 22:56 12,0 C 11,1 C 10,6 C 79 % 989,0 hPa 0,0 l/m 0 min 0 min 0 W/m 22,5 km/h (4 Bft) 96,00 %
02.11.2019 22:58 12,0 C 11,1 C 10,6 C 79 % 988,9 hPa 0,0 l/m 0 min 0 min 0 W/m 16,1 km/h (3 Bft) 95,83 %
02.11.2019 23:00 12,0 C 11,1 C 10,6 C 79 % 988,8 hPa 0,0 l/m 0 min 0 min 0 W/m 19,3 km/h (3 Bft) 95,74 %
02.11.2019 23:02 12,0 C 11,1 C 10,6 C 79 % 988,7 hPa 0,0 l/m 0 min 0 min 0 W/m 16,1 km/h (3 Bft) 95,35 %
02.11.2019 23:04 12,0 C 11,1 C 10,6 C 79 % 988,7 hPa 0,0 l/m 0 min 0 min 0 W/m 12,9 km/h (3 Bft) 95,92 %
02.11.2019 23:06 12,0 C 11,1 C 10,6 C 79 % 988,6 hPa 0,0 l/m 0 min 0 min 0 W/m 22,5 km/h (4 Bft) 95,83 %
02.11.2019 23:08 12,0 C 11,1 C 10,6 C 80 % 988,6 hPa 0,0 l/m 0 min 0 min 0 W/m 16,1 km/h (3 Bft) 95,74 %
02.11.2019 23:10 11,9 C 11,1 C 10,6 C 80 % 988,6 hPa 0,0 l/m 0 min 0 min 0 W/m 16,1 km/h (3 Bft) 100,00 %
02.11.2019 23:12 11,9 C 11,1 C 10,6 C 80 % 988,5 hPa 0,0 l/m 0 min 0 min 0 W/m 16,1 km/h (3 Bft) 98,00 %
02.11.2019 23:14 11,9 C 11,1 C 10,6 C 80 % 988,5 hPa 0,0 l/m 0 min 0 min 0 W/m 12,9 km/h (3 Bft) 95,83 %
02.11.2019 23:16 11,9 C 11,1 C 10,6 C 80 % 988,5 hPa 0,0 l/m 0 min 0 min 0 W/m 19,3 km/h (3 Bft) 93,62 %
02.11.2019 23:18 11,9 C 11,1 C 10,6 C 80 % 988,5 hPa 0,0 l/m 0 min 0 min 0 W/m 25,7 km/h (4 Bft) 92,86 %
02.11.2019 23:20 11,9 C 11,1 C 10,6 C 80 % 988,4 hPa 0,0 l/m 0 min 0 min 0 W/m 16,1 km/h (3 Bft) 98,00 %
02.11.2019 23:22 11,9 C 11,1 C 10,6 C 80 % 988,3 hPa 0,0 l/m 0 min 0 min 0 W/m 12,9 km/h (3 Bft) 95,74 %
02.11.2019 23:24 11,9 C 11,1 C 10,6 C 80 % 988,3 hPa 0,0 l/m 0 min 0 min 0 W/m 19,3 km/h (3 Bft) 95,83 %
02.11.2019 23:26 11,9 C 11,1 C 10,6 C 80 % 988,3 hPa 0,0 l/m 0 min 0 min 0 W/m 16,1 km/h (3 Bft) 95,74 %
02.11.2019 23:28 11,9 C 11,1 C 10,6 C 81 % 988,3 hPa 0,0 l/m 0 min 0 min 0 W/m 12,9 km/h (3 Bft) 97,62 %
02.11.2019 23:30 11,9 C 11,1 C 10,6 C 81 % 988,3 hPa 0,0 l/m 0 min 0 min 0 W/m 16,1 km/h (3 Bft) 98,00 %
02.11.2019 23:32 11,9 C 10,6 C 10,6 C 81 % 988,2 hPa 0,0 l/m 0 min 0 min 0 W/m 12,9 km/h (3 Bft) 97,92 %
02.11.2019 23:34 11,8 C 10,6 C 10,0 C 81 % 988,1 hPa 0,0 l/m 0 min 0 min 0 W/m 12,9 km/h (3 Bft) 97,87 %
02.11.2019 23:36 11,8 C 10,6 C 10,0 C 81 % 988,1 hPa 0,0 l/m 0 min 0 min 0 W/m 16,1 km/h (3 Bft) 93,02 %
02.11.2019 23:38 11,8 C 10,6 C 10,0 C 81 % 988,1 hPa 0,0 l/m 0 min 0 min 0 W/m 12,9 km/h (3 Bft) 97,96 %
02.11.2019 23:40 11,8 C 10,6 C 10,0 C 81 % 988,1 hPa 0,0 l/m 0 min 0 min 0 W/m 19,3 km/h (3 Bft) 95,83 %
02.11.2019 23:42 11,8 C 10,6 C 10,0 C 81 % 988,1 hPa 0,0 l/m 0 min 0 min 0 W/m 19,3 km/h (3 Bft) 100,00 %
02.11.2019 23:44 11,8 C 10,6 C 10,0 C 81 % 988,1 hPa 0,0 l/m 0 min 0 min 0 W/m 12,9 km/h (3 Bft) 97,87 %
02.11.2019 23:46 11,8 C 10,6 C 10,0 C 81 % 988,1 hPa 0,0 l/m 0 min 0 min 0 W/m 12,9 km/h (3 Bft) 95,35 %
02.11.2019 23:48 11,7 C 10,6 C 10,0 C 81 % 988,1 hPa 0,0 l/m 0 min 0 min 0 W/m 16,1 km/h (3 Bft) 98,00 %
02.11.2019 23:50 11,7 C 10,6 C 10,0 C 81 % 988,1 hPa 0,0 l/m 0 min 0 min 0 W/m 22,5 km/h (4 Bft) 97,87 %
02.11.2019 23:52 11,7 C 10,6 C 10,0 C 81 % 988,1 hPa 0,0 l/m 0 min 0 min 0 W/m 19,3 km/h (3 Bft) 97,87 %
02.11.2019 23:54 11,7 C 10,6 C 10,0 C 82 % 988,1 hPa 0,0 l/m 0 min 0 min 0 W/m 19,3 km/h (3 Bft) 97,87 %
02.11.2019 23:56 11,7 C 10,6 C 10,0 C 82 % 988,1 hPa 0,0 l/m 0 min 0 min 0 W/m 16,1 km/h (3 Bft) 97,67 %
02.11.2019 23:58 11,7 C 10,6 C 10,0 C 82 % 988,1 hPa 0,0 l/m 0 min 0 min 0 W/m 16,1 km/h (3 Bft) 96,00 %
_ Min-Zeit 00:00 00:00 00:00 18:32 23:34 - - - - 04:56 20:02
Minimum _ 10,5 C 9,4 C 9,4 C 78 % 988,1 hPa - - - - 0,0 km/h (0 Bft) 87,50 %
_ Max-Zeit 11:34 14:02 10:22 00:00 00:00 00:32 10:10 12:08 13:12 08:00 00:00
Maximum _ 14,7 C 15,6 C 13,9 C 100 % 995,4 hPa 0,2 l/m 2 min 4 min 469 W/m 45,1 km/h
S-SO (6 Bft)
100,00 %
Durchschnitt _ 12,9 C 12,2 C 11,5 C 91 % 990,9 hPa #4,6 l/m #1:36 h #3:17 h 91 W/m 17,1 km/h (3 Bft) 97,38 %
© 2019 W. Hausmann